Wetterdaten: Samstag, 30.01.2021
Datum Zeit Temp. Aussen Temp. o. S. Temp +5cm Feuchte Auss Luftdruck Regen Sonnenschein Regendauer Solar Windben Empfang
30.01.2021 00:00 7,3 C 6,7 C 4,5 C 90 % 1000,1 hPa 0,0 l/m 0 min 0 min 0 W/m 12,9 km/h (3 Bft) 100,00 %
30.01.2021 00:02 7,3 C 6,7 C 4,5 C 90 % 1000,0 hPa 0,0 l/m 0 min 0 min 0 W/m 16,1 km/h (3 Bft) 95,56 %
30.01.2021 00:04 7,3 C 6,7 C 4,5 C 90 % 1000,1 hPa 0,0 l/m 0 min 0 min 0 W/m 16,1 km/h (3 Bft) 97,87 %
30.01.2021 00:08 7,3 C 6,7 C 4,5 C 90 % 1000,1 hPa 0,0 l/m 0 min 0 min 0 W/m 6,4 km/h (2 Bft) 97,85 %
30.01.2021 00:10 7,2 C 6,7 C 4,5 C 90 % 1000,2 hPa 0,0 l/m 0 min 0 min 0 W/m 12,9 km/h (3 Bft) 93,62 %
30.01.2021 00:12 7,2 C 6,7 C 4,5 C 89 % 1000,2 hPa 0,0 l/m 0 min 0 min 0 W/m 6,4 km/h (2 Bft) 93,62 %
30.01.2021 00:14 7,2 C 6,7 C 4,5 C 89 % 1000,1 hPa 0,0 l/m 0 min 0 min 0 W/m 0,0 km/h (0 Bft) 95,74 %
30.01.2021 00:16 7,2 C 6,7 C 4,5 C 89 % 1000,2 hPa 0,0 l/m 0 min 0 min 0 W/m 3,2 km/h (1 Bft) 95,74 %
30.01.2021 00:18 7,1 C 6,7 C 4,5 C 89 % 1000,3 hPa 0,0 l/m 0 min 0 min 0 W/m 16,1 km/h (3 Bft) 93,62 %
30.01.2021 00:20 7,1 C 6,7 C 4,5 C 89 % 1000,1 hPa 0,0 l/m 0 min 0 min 0 W/m 9,7 km/h (2 Bft) 95,65 %
30.01.2021 00:22 7,1 C 6,7 C 4,5 C 89 % 1000,2 hPa 0,0 l/m 0 min 0 min 0 W/m 3,2 km/h (1 Bft) 95,74 %
30.01.2021 00:24 7,1 C 6,7 C 4,5 C 89 % 1000,3 hPa 0,0 l/m 0 min 0 min 0 W/m 12,9 km/h (3 Bft) 95,74 %
30.01.2021 00:26 7,1 C 6,7 C 4,5 C 89 % 1000,2 hPa 0,0 l/m 0 min 0 min 0 W/m 29,0 km/h (5 Bft) 95,74 %
30.01.2021 00:28 7,1 C 6,7 C 4,5 C 89 % 1000,3 hPa 0,0 l/m 0 min 0 min 0 W/m 9,7 km/h (2 Bft) 93,62 %
30.01.2021 00:30 7,0 C 6,7 C 4,5 C 89 % 1000,3 hPa 0,0 l/m 0 min 0 min 0 W/m 9,7 km/h (2 Bft) 95,74 %
30.01.2021 00:32 7,0 C 6,1 C 4,5 C 89 % 1000,3 hPa 0,0 l/m 0 min 0 min 0 W/m 6,4 km/h (2 Bft) 95,74 %
30.01.2021 00:34 7,0 C 6,1 C 3,9 C 89 % 1000,4 hPa 0,0 l/m 0 min 0 min 0 W/m 9,7 km/h (2 Bft) 93,62 %
30.01.2021 00:36 7,0 C 6,1 C 3,9 C 89 % 1000,4 hPa 0,0 l/m 0 min 0 min 0 W/m 3,2 km/h (1 Bft) 95,74 %
30.01.2021 00:38 7,0 C 6,1 C 3,9 C 90 % 1000,4 hPa 0,0 l/m 0 min 0 min 0 W/m 3,2 km/h (1 Bft) 95,74 %
30.01.2021 00:40 7,0 C 6,1 C 3,9 C 90 % 1000,4 hPa 0,0 l/m 0 min 0 min 0 W/m 3,2 km/h (1 Bft) 95,74 %
30.01.2021 00:42 7,0 C 6,1 C 3,9 C 90 % 1000,6 hPa 0,0 l/m 0 min 0 min 0 W/m 3,2 km/h (1 Bft) 93,48 %
30.01.2021 00:44 6,9 C 6,1 C 3,9 C 90 % 1000,5 hPa 0,0 l/m 0 min 0 min 0 W/m 9,7 km/h (2 Bft) 91,49 %
30.01.2021 00:46 6,9 C 6,1 C 3,9 C 90 % 1000,6 hPa 0,0 l/m 0 min 0 min 0 W/m 9,7 km/h (2 Bft) 95,74 %
30.01.2021 00:48 6,9 C 6,1 C 3,9 C 90 % 1000,6 hPa 0,0 l/m 0 min 0 min 0 W/m 3,2 km/h (1 Bft) 95,74 %
30.01.2021 00:50 6,9 C 6,1 C 3,9 C 90 % 1000,6 hPa 0,0 l/m 0 min 0 min 0 W/m 3,2 km/h (1 Bft) 97,87 %
30.01.2021 00:52 6,8 C 6,1 C 3,9 C 90 % 1000,7 hPa 0,0 l/m 0 min 0 min 0 W/m 9,7 km/h (2 Bft) 95,24 %
30.01.2021 00:54 6,8 C 6,1 C 3,9 C 90 % 1000,7 hPa 0,0 l/m 0 min 0 min 0 W/m 0,0 km/h (0 Bft) 95,74 %
30.01.2021 00:56 6,8 C 6,1 C 3,9 C 90 % 1000,7 hPa 0,0 l/m 0 min 0 min 0 W/m 3,2 km/h (1 Bft) 97,87 %
30.01.2021 00:58 6,8 C 6,1 C 3,9 C 91 % 1000,7 hPa 0,0 l/m 0 min 0 min 0 W/m 3,2 km/h (1 Bft) 97,83 %
30.01.2021 01:00 6,7 C 6,1 C 3,9 C 91 % 1000,8 hPa 0,0 l/m 0 min 0 min 0 W/m 3,2 km/h (1 Bft) 97,87 %
30.01.2021 01:02 6,7 C 6,1 C 3,9 C 91 % 1000,7 hPa 0,0 l/m 0 min 0 min 0 W/m 6,4 km/h (2 Bft) 97,92 %
30.01.2021 01:04 6,6 C 6,1 C 3,9 C 91 % 1000,8 hPa 0,0 l/m 0 min 0 min 0 W/m 3,2 km/h (1 Bft) 95,74 %
30.01.2021 01:06 6,6 C 6,1 C 3,9 C 91 % 1000,8 hPa 0,0 l/m 0 min 0 min 0 W/m 3,2 km/h (1 Bft) 95,74 %
30.01.2021 01:08 6,6 C 6,1 C 3,9 C 91 % 1000,7 hPa 0,0 l/m 0 min 0 min 0 W/m 3,2 km/h (1 Bft) 97,83 %
30.01.2021 01:10 6,6 C 6,1 C 3,9 C 91 % 1000,7 hPa 0,0 l/m 0 min 0 min 0 W/m 3,2 km/h (1 Bft) 97,87 %
30.01.2021 01:12 6,5 C 5,6 C 3,9 C 91 % 1000,7 hPa 0,0 l/m 0 min 0 min 0 W/m 0,0 km/h (0 Bft) 95,74 %
30.01.2021 01:14 6,5 C 5,6 C 3,9 C 91 % 1000,8 hPa 0,0 l/m 0 min 0 min 0 W/m 3,2 km/h (1 Bft) 97,87 %
30.01.2021 01:16 6,5 C 5,6 C 3,9 C 91 % 1000,8 hPa 0,0 l/m 0 min 0 min 0 W/m 0,0 km/h (0 Bft) 97,87 %
30.01.2021 01:18 6,5 C 5,6 C 3,4 C 91 % 1000,9 hPa 0,0 l/m 0 min 0 min 0 W/m 0,0 km/h (0 Bft) 97,87 %
30.01.2021 01:20 6,4 C 5,6 C 3,4 C 91 % 1000,9 hPa 0,0 l/m 0 min 0 min 0 W/m 3,2 km/h (1 Bft) 97,83 %
30.01.2021 01:22 6,4 C 5,6 C 3,4 C 91 % 1000,8 hPa 0,0 l/m 0 min 0 min 0 W/m 3,2 km/h (1 Bft) 93,62 %
30.01.2021 01:24 6,4 C 5,6 C 3,4 C 91 % 1000,8 hPa 0,0 l/m 0 min 0 min 0 W/m 6,4 km/h (2 Bft) 95,74 %
30.01.2021 01:26 6,3 C 5,6 C 3,4 C 91 % 1000,8 hPa 0,0 l/m 0 min 0 min 0 W/m 19,3 km/h (3 Bft) 93,62 %
30.01.2021 01:28 6,3 C 5,6 C 3,4 C 92 % 1000,8 hPa 0,0 l/m 0 min 0 min 0 W/m 3,2 km/h (1 Bft) 91,49 %
30.01.2021 01:30 6,2 C 5,6 C 3,4 C 92 % 1000,8 hPa 0,0 l/m 0 min 0 min 0 W/m 3,2 km/h (1 Bft) 97,87 %
30.01.2021 01:32 6,2 C 5,0 C 3,4 C 92 % 1000,8 hPa 0,0 l/m 0 min 0 min 0 W/m 3,2 km/h (1 Bft) 95,74 %
30.01.2021 01:34 6,1 C 5,0 C 3,4 C 92 % 1000,8 hPa 0,0 l/m 0 min 0 min 0 W/m 6,4 km/h (2 Bft) 95,74 %
30.01.2021 01:36 6,0 C 5,0 C 3,4 C 92 % 1000,7 hPa 0,0 l/m 0 min 0 min 0 W/m 3,2 km/h (1 Bft) 95,74 %
30.01.2021 01:38 6,0 C 5,0 C 3,4 C 92 % 1000,8 hPa 0,0 l/m 0 min 0 min 0 W/m 3,2 km/h (1 Bft) 97,87 %
30.01.2021 01:40 6,0 C 5,0 C 3,4 C 92 % 1000,8 hPa 0,0 l/m 0 min 0 min 0 W/m 6,4 km/h (2 Bft) 97,87 %
30.01.2021 01:42 5,9 C 5,0 C 3,4 C 92 % 1000,9 hPa 0,0 l/m 0 min 0 min 0 W/m 9,7 km/h (2 Bft) 93,62 %
30.01.2021 01:44 5,9 C 5,0 C 3,4 C 92 % 1000,8 hPa 0,0 l/m 0 min 0 min 0 W/m 6,4 km/h (2 Bft) 97,83 %
30.01.2021 01:46 5,9 C 5,0 C 3,4 C 92 % 1000,8 hPa 0,0 l/m 0 min 0 min 0 W/m 6,4 km/h (2 Bft) 95,74 %
30.01.2021 01:48 5,8 C 5,0 C 3,4 C 92 % 1000,8 hPa 0,0 l/m 0 min 0 min 0 W/m 0,0 km/h (0 Bft) 97,87 %
30.01.2021 01:50 5,8 C 5,0 C 3,4 C 92 % 1000,9 hPa 0,0 l/m 0 min 0 min 0 W/m 35,4 km/h (5 Bft) 97,87 %
30.01.2021 01:52 5,8 C 5,0 C 3,4 C 92 % 1000,9 hPa 0,0 l/m 0 min 0 min 0 W/m 3,2 km/h (1 Bft) 93,62 %
30.01.2021 01:54 5,8 C 5,0 C 3,4 C 92 % 1000,9 hPa 0,0 l/m 0 min 0 min 0 W/m 3,2 km/h (1 Bft) 97,78 %
30.01.2021 01:56 5,7 C 5,0 C 3,4 C 92 % 1000,9 hPa 0,0 l/m 0 min 0 min 0 W/m 9,7 km/h (2 Bft) 97,83 %
30.01.2021 01:58 5,7 C 5,0 C 3,4 C 92 % 1000,9 hPa 0,0 l/m 0 min 0 min 0 W/m 6,4 km/h (2 Bft) 97,87 %
30.01.2021 02:00 5,6 C 5,0 C 3,4 C 93 % 1001,0 hPa 0,0 l/m 0 min 0 min 0 W/m 3,2 km/h (1 Bft) 97,87 %
30.01.2021 02:02 5,6 C 5,0 C 3,4 C 93 % 1000,9 hPa 0,0 l/m 0 min 0 min 0 W/m 3,2 km/h (1 Bft) 93,62 %
30.01.2021 02:04 5,6 C 5,0 C 3,4 C 93 % 1000,9 hPa 0,0 l/m 0 min 0 min 0 W/m 0,0 km/h (0 Bft) 95,74 %
30.01.2021 02:06 5,6 C 5,0 C 3,4 C 93 % 1000,9 hPa 0,0 l/m 0 min 0 min 0 W/m 0,0 km/h (0 Bft) 97,87 %
30.01.2021 02:08 5,6 C 5,0 C 3,4 C 93 % 1000,9 hPa 0,0 l/m 0 min 0 min 0 W/m 0,0 km/h (0 Bft) 100,00 %
30.01.2021 02:10 5,6 C 5,0 C 3,4 C 92 % 1001,0 hPa 0,0 l/m 0 min 0 min 0 W/m 3,2 km/h (1 Bft) 95,74 %
30.01.2021 02:12 5,6 C 5,0 C 3,4 C 92 % 1001,2 hPa 0,0 l/m 0 min 0 min 0 W/m 6,4 km/h (2 Bft) 100,00 %
30.01.2021 02:14 5,5 C 4,4 C 2,8 C 92 % 1001,2 hPa 0,0 l/m 0 min 0 min 0 W/m 3,2 km/h (1 Bft) 100,00 %
30.01.2021 02:16 5,4 C 3,9 C 2,8 C 92 % 1001,2 hPa 0,0 l/m 0 min 0 min 0 W/m 0,0 km/h (0 Bft) 100,00 %
30.01.2021 02:18 5,3 C 3,9 C 2,8 C 92 % 1001,3 hPa 0,0 l/m 0 min 0 min 0 W/m 12,9 km/h (3 Bft) 100,00 %
30.01.2021 02:20 5,2 C 3,9 C 2,3 C 92 % 1001,3 hPa 0,0 l/m 0 min 0 min 0 W/m 6,4 km/h (2 Bft) 97,83 %
30.01.2021 02:22 5,1 C 3,9 C 2,3 C 92 % 1001,3 hPa 0,0 l/m 0 min 0 min 0 W/m 0,0 km/h (0 Bft) 100,00 %
30.01.2021 02:24 5,0 C 3,9 C 2,3 C 92 % 1001,3 hPa 0,0 l/m 0 min 0 min 0 W/m 3,2 km/h (1 Bft) 100,00 %
30.01.2021 02:26 4,9 C 3,3 C 2,3 C 92 % 1001,3 hPa 0,0 l/m 0 min 0 min 0 W/m 0,0 km/h (0 Bft) 100,00 %
30.01.2021 02:28 4,8 C 3,3 C 2,3 C 91 % 1001,3 hPa 0,0 l/m 0 min 0 min 0 W/m 0,0 km/h (0 Bft) 100,00 %
30.01.2021 02:30 4,7 C 3,3 C 2,3 C 92 % 1001,3 hPa 0,0 l/m 0 min 0 min 0 W/m 0,0 km/h (0 Bft) 100,00 %
30.01.2021 02:32 4,6 C 3,3 C 1,7 C 92 % 1001,3 hPa 0,0 l/m 0 min 0 min 0 W/m 3,2 km/h (1 Bft) 100,00 %
30.01.2021 02:34 4,5 C 3,3 C 1,7 C 91 % 1001,4 hPa 0,0 l/m 0 min 0 min 0 W/m 0,0 km/h (0 Bft) 100,00 %
30.01.2021 02:36 4,4 C 3,3 C 1,7 C 92 % 1001,4 hPa 0,0 l/m 0 min 0 min 0 W/m 3,2 km/h (1 Bft) 100,00 %
30.01.2021 02:38 4,4 C 3,3 C 1,7 C 92 % 1001,4 hPa 0,0 l/m 0 min 0 min 0 W/m 6,4 km/h (2 Bft) 100,00 %
30.01.2021 02:40 4,3 C 3,3 C 1,7 C 92 % 1001,4 hPa 0,0 l/m 0 min 0 min 0 W/m 3,2 km/h (1 Bft) 100,00 %
30.01.2021 02:42 4,2 C 3,3 C 1,7 C 92 % 1001,5 hPa 0,0 l/m 0 min 0 min 0 W/m 3,2 km/h (1 Bft) 100,00 %
30.01.2021 02:44 4,1 C 3,3 C 1,7 C 92 % 1001,6 hPa 0,0 l/m 0 min 0 min 0 W/m 3,2 km/h (1 Bft) 97,87 %
30.01.2021 02:46 4,1 C 3,3 C 1,7 C 92 % 1001,5 hPa 0,0 l/m 0 min 0 min 0 W/m 3,2 km/h (1 Bft) 100,00 %
30.01.2021 02:48 4,0 C 2,8 C 1,7 C 92 % 1001,6 hPa 0,0 l/m 0 min 0 min 0 W/m 0,0 km/h (0 Bft) 100,00 %
30.01.2021 02:50 4,0 C 2,8 C 1,7 C 92 % 1001,6 hPa 0,0 l/m 0 min 0 min 0 W/m 0,0 km/h (0 Bft) 100,00 %
30.01.2021 02:52 4,0 C 2,8 C 1,7 C 92 % 1001,7 hPa 0,0 l/m 0 min 0 min 0 W/m 0,0 km/h (0 Bft) 97,30 %
30.01.2021 02:54 3,9 C 2,8 C 1,7 C 92 % 1001,6 hPa 0,0 l/m 0 min 0 min 0 W/m 3,2 km/h (1 Bft) 100,00 %
30.01.2021 02:56 3,9 C 2,8 C 1,2 C 92 % 1001,6 hPa 0,0 l/m 0 min 0 min 0 W/m 0,0 km/h (0 Bft) 98,28 %
30.01.2021 02:58 3,8 C 2,8 C 1,2 C 92 % 1001,7 hPa 0,0 l/m 0 min 0 min 0 W/m 6,4 km/h (2 Bft) 100,00 %
30.01.2021 03:00 3,8 C 2,8 C 1,2 C 92 % 1001,7 hPa 0,0 l/m 0 min 0 min 0 W/m 0,0 km/h (0 Bft) 100,00 %
30.01.2021 03:02 3,8 C 2,8 C 1,2 C 92 % 1001,7 hPa 0,0 l/m 0 min 0 min 0 W/m 0,0 km/h (0 Bft) 95,74 %
30.01.2021 03:04 3,7 C 2,8 C 1,2 C 93 % 1001,8 hPa 0,0 l/m 0 min 0 min 0 W/m 0,0 km/h (0 Bft) 97,83 %
30.01.2021 03:06 3,6 C 2,8 C 1,2 C 93 % 1001,7 hPa 0,0 l/m 0 min 0 min 0 W/m 3,2 km/h (1 Bft) 97,87 %
30.01.2021 03:08 3,6 C 2,8 C 1,2 C 93 % 1001,7 hPa 0,0 l/m 0 min 0 min 0 W/m 3,2 km/h (1 Bft) 97,87 %
30.01.2021 03:10 3,5 C 2,8 C 1,2 C 93 % 1001,7 hPa 0,0 l/m 0 min 0 min 0 W/m 0,0 km/h (0 Bft) 97,87 %
30.01.2021 03:12 3,5 C 2,8 C 1,2 C 93 % 1001,7 hPa 0,0 l/m 0 min 0 min 0 W/m 3,2 km/h (1 Bft) 95,74 %
30.01.2021 03:14 3,4 C 2,8 C 1,2 C 93 % 1001,8 hPa 0,0 l/m 0 min 0 min 0 W/m 3,2 km/h (1 Bft) 97,87 %
30.01.2021 03:16 3,4 C 2,2 C 1,2 C 93 % 1001,8 hPa 0,0 l/m 0 min 0 min 0 W/m 3,2 km/h (1 Bft) 97,83 %
30.01.2021 03:18 3,3 C 2,2 C 1,2 C 93 % 1001,8 hPa 0,0 l/m 0 min 0 min 0 W/m 3,2 km/h (1 Bft) 97,87 %
30.01.2021 03:20 3,3 C 2,2 C 1,2 C 93 % 1001,8 hPa 0,0 l/m 0 min 0 min 0 W/m 3,2 km/h (1 Bft) 95,74 %
30.01.2021 03:22 3,2 C 2,2 C 1,2 C 93 % 1001,8 hPa 0,0 l/m 0 min 0 min 0 W/m 3,2 km/h (1 Bft) 95,74 %
30.01.2021 03:24 3,1 C 2,2 C 0,6 C 93 % 1001,8 hPa 0,0 l/m 0 min 0 min 0 W/m 0,0 km/h (0 Bft) 97,87 %
30.01.2021 03:26 3,1 C 2,2 C 0,6 C 93 % 1001,9 hPa 0,0 l/m 0 min 0 min 0 W/m 0,0 km/h (0 Bft) 97,87 %
30.01.2021 03:28 3,1 C 2,2 C 0,6 C 93 % 1001,9 hPa 0,0 l/m 0 min 0 min 0 W/m 0,0 km/h (0 Bft) 97,83 %
30.01.2021 03:30 3,0 C 2,2 C 0,6 C 93 % 1001,8 hPa 0,0 l/m 0 min 0 min 0 W/m 19,3 km/h (3 Bft) 97,87 %
30.01.2021 03:32 3,0 C 2,2 C 0,6 C 93 % 1001,8 hPa 0,0 l/m 0 min 0 min 0 W/m 3,2 km/h (1 Bft) 97,87 %
30.01.2021 03:34 2,9 C 1,7 C 0,6 C 93 % 1001,8 hPa 0,0 l/m 0 min 0 min 0 W/m 0,0 km/h (0 Bft) 95,74 %
30.01.2021 03:36 2,9 C 1,7 C 0,6 C 93 % 1001,8 hPa 0,0 l/m 0 min 0 min 0 W/m 0,0 km/h (0 Bft) 97,87 %
30.01.2021 03:38 2,8 C 1,7 C 0,6 C 93 % 1001,9 hPa 0,0 l/m 0 min 0 min 0 W/m 3,2 km/h (1 Bft) 93,62 %
30.01.2021 03:40 2,8 C 2,2 C 0,6 C 93 % 1001,8 hPa 0,0 l/m 0 min 0 min 0 W/m 3,2 km/h (1 Bft) 97,83 %
30.01.2021 03:42 2,8 C 2,2 C 0,6 C 93 % 1001,8 hPa 0,0 l/m 0 min 0 min 0 W/m 0,0 km/h (0 Bft) 97,87 %
30.01.2021 03:44 2,7 C 2,2 C 0,6 C 93 % 1001,7 hPa 0,0 l/m 0 min 0 min 0 W/m 0,0 km/h (0 Bft) 97,87 %
30.01.2021 03:46 2,7 C 2,2 C 0,6 C 93 % 1001,8 hPa 0,0 l/m 0 min 0 min 0 W/m 0,0 km/h (0 Bft) 100,00 %
30.01.2021 03:48 2,6 C 2,2 C 0,6 C 93 % 1001,9 hPa 0,0 l/m 0 min 0 min 0 W/m 0,0 km/h (0 Bft) 97,87 %
30.01.2021 03:50 2,6 C 2,2 C 0,6 C 93 % 1001,9 hPa 0,0 l/m 0 min 0 min 0 W/m 0,0 km/h (0 Bft) 56,52 %
30.01.2021 03:52 2,6 C 2,2 C 0,6 C 93 % 1001,9 hPa 0,0 l/m 0 min 0 min 0 W/m 0,0 km/h (0 Bft) 97,83 %
30.01.2021 03:54 2,6 C 2,2 C 0,6 C 93 % 1002,0 hPa 0,0 l/m 0 min 0 min 0 W/m 0,0 km/h (0 Bft) 100,00 %
30.01.2021 03:56 2,5 C 2,2 C 0,6 C 93 % 1002,0 hPa 0,0 l/m 0 min 0 min 0 W/m 3,2 km/h (1 Bft) 97,87 %
30.01.2021 03:58 2,5 C 2,2 C 0,6 C 93 % 1002,0 hPa 0,0 l/m 0 min 0 min 0 W/m 0,0 km/h (0 Bft) 100,00 %
30.01.2021 04:00 2,5 C 2,2 C 0,6 C 93 % 1002,0 hPa 0,0 l/m 0 min 0 min 0 W/m 3,2 km/h (1 Bft) 97,83 %
30.01.2021 04:02 2,5 C 2,2 C 0,6 C 93 % 1002,0 hPa 0,0 l/m 0 min 0 min 0 W/m 0,0 km/h (0 Bft) 96,67 %
30.01.2021 04:04 2,5 C 2,2 C 0,6 C 93 % 1002,0 hPa 0,0 l/m 0 min 0 min 0 W/m 3,2 km/h (1 Bft) 100,00 %
30.01.2021 04:06 2,4 C 1,7 C 0,6 C 93 % 1002,1 hPa 0,0 l/m 0 min 0 min 0 W/m 3,2 km/h (1 Bft) 100,00 %
30.01.2021 04:08 2,4 C 1,7 C 0,6 C 93 % 1002,1 hPa 0,0 l/m 0 min 0 min 0 W/m 0,0 km/h (0 Bft) 97,87 %
30.01.2021 04:10 2,4 C 1,7 C 0,6 C 93 % 1002,1 hPa 0,0 l/m 0 min 0 min 0 W/m 3,2 km/h (1 Bft) 97,87 %
30.01.2021 04:12 2,4 C 1,7 C 0,6 C 93 % 1002,2 hPa 0,0 l/m 0 min 0 min 0 W/m 0,0 km/h (0 Bft) 97,87 %
30.01.2021 04:14 2,4 C 1,1 C 0,0 C 93 % 1002,1 hPa 0,0 l/m 0 min 0 min 0 W/m 0,0 km/h (0 Bft) 97,83 %
30.01.2021 04:16 2,3 C 1,1 C 0,0 C 93 % 1002,1 hPa 0,0 l/m 0 min 0 min 0 W/m 0,0 km/h (0 Bft) 97,87 %
30.01.2021 04:18 2,3 C 1,1 C 0,0 C 93 % 1002,1 hPa 0,0 l/m 0 min 0 min 0 W/m 3,2 km/h (1 Bft) 97,87 %
30.01.2021 04:20 2,2 C 1,1 C 0,0 C 93 % 1002,1 hPa 0,0 l/m 0 min 0 min 0 W/m 0,0 km/h (0 Bft) 97,87 %
30.01.2021 04:22 2,2 C 1,1 C 0,0 C 93 % 1002,1 hPa 0,0 l/m 0 min 0 min 0 W/m 0,0 km/h (0 Bft) 95,74 %
30.01.2021 04:24 2,2 C 1,1 C 0,0 C 93 % 1002,1 hPa 0,0 l/m 0 min 0 min 0 W/m 3,2 km/h (1 Bft) 95,65 %
30.01.2021 04:26 2,1 C 1,1 C 0,0 C 93 % 1002,1 hPa 0,0 l/m 0 min 0 min 0 W/m 0,0 km/h (0 Bft) 93,62 %
30.01.2021 04:28 2,1 C 1,1 C 0,0 C 93 % 1002,1 hPa 0,0 l/m 0 min 0 min 0 W/m 0,0 km/h (0 Bft) 97,87 %
30.01.2021 04:30 2,1 C 1,1 C -0,5 C 93 % 1002,1 hPa 0,0 l/m 0 min 0 min 0 W/m 3,2 km/h (1 Bft) 97,87 %
30.01.2021 04:32 2,0 C 1,1 C -0,5 C 93 % 1002,1 hPa 0,0 l/m 0 min 0 min 0 W/m 0,0 km/h (0 Bft) 95,74 %
30.01.2021 04:34 2,0 C 1,1 C -0,5 C 93 % 1002,1 hPa 0,0 l/m 0 min 0 min 0 W/m 0,0 km/h (0 Bft) 95,74 %
30.01.2021 04:36 2,0 C 1,1 C -0,5 C 94 % 1002,2 hPa 0,0 l/m 0 min 0 min 0 W/m 0,0 km/h (0 Bft) 97,83 %
30.01.2021 04:38 2,0 C 1,1 C -0,5 C 94 % 1002,1 hPa 0,0 l/m 0 min 0 min 0 W/m 0,0 km/h (0 Bft) 97,87 %
30.01.2021 04:40 1,9 C 1,1 C -0,5 C 94 % 1002,1 hPa 0,0 l/m 0 min 0 min 0 W/m 3,2 km/h (1 Bft) 97,87 %
30.01.2021 04:42 1,9 C 1,1 C -0,5 C 94 % 1002,1 hPa 0,0 l/m 0 min 0 min 0 W/m 0,0 km/h (0 Bft) 97,87 %
30.01.2021 04:44 1,9 C 0,6 C -0,5 C 93 % 1002,1 hPa 0,0 l/m 0 min 0 min 0 W/m 6,4 km/h (2 Bft) 97,87 %
30.01.2021 04:46 1,8 C 1,1 C -0,5 C 93 % 1002,0 hPa 0,0 l/m 0 min 0 min 0 W/m 0,0 km/h (0 Bft) 97,87 %
30.01.2021 04:48 1,8 C 1,1 C -0,5 C 94 % 1002,1 hPa 0,0 l/m 0 min 0 min 0 W/m 3,2 km/h (1 Bft) 97,83 %
30.01.2021 04:50 1,8 C 1,1 C -0,5 C 94 % 1002,1 hPa 0,0 l/m 0 min 0 min 0 W/m 0,0 km/h (0 Bft) 97,87 %
30.01.2021 04:52 1,8 C 1,1 C -0,5 C 94 % 1002,2 hPa 0,0 l/m 0 min 0 min 0 W/m 0,0 km/h (0 Bft) 97,87 %
30.01.2021 04:54 1,8 C 1,1 C -0,5 C 94 % 1002,2 hPa 0,0 l/m 0 min 0 min 0 W/m 0,0 km/h (0 Bft) 97,87 %
30.01.2021 04:56 1,8 C 1,1 C -0,5 C 94 % 1002,1 hPa 0,0 l/m 0 min 0 min 0 W/m 0,0 km/h (0 Bft) 100,00 %
30.01.2021 04:58 1,7 C 0,6 C -0,5 C 94 % 1002,2 hPa 0,0 l/m 0 min 0 min 0 W/m 3,2 km/h (1 Bft) 100,00 %
30.01.2021 05:00 1,7 C 0,6 C -0,5 C 94 % 1002,2 hPa 0,0 l/m 0 min 0 min 0 W/m 0,0 km/h (0 Bft) 100,00 %
30.01.2021 05:02 1,6 C 0,6 C -0,5 C 94 % 1002,2 hPa 0,0 l/m 0 min 0 min 0 W/m 0,0 km/h (0 Bft) 100,00 %
30.01.2021 05:04 1,6 C 0,6 C -0,5 C 94 % 1002,2 hPa 0,0 l/m 0 min 0 min 0 W/m 0,0 km/h (0 Bft) 100,00 %
30.01.2021 05:06 1,6 C 0,6 C -0,5 C 94 % 1002,2 hPa 0,0 l/m 0 min 0 min 0 W/m 0,0 km/h (0 Bft) 100,00 %
30.01.2021 05:08 1,6 C 0,6 C -0,5 C 94 % 1002,2 hPa 0,0 l/m 0 min 0 min 0 W/m 0,0 km/h (0 Bft) 100,00 %
30.01.2021 05:10 1,5 C 0,6 C -0,5 C 94 % 1002,3 hPa 0,0 l/m 0 min 0 min 0 W/m 0,0 km/h (0 Bft) 100,00 %
30.01.2021 05:12 1,5 C 0,6 C -0,5 C 94 % 1002,4 hPa 0,0 l/m 0 min 0 min 0 W/m 3,2 km/h (1 Bft) 100,00 %
30.01.2021 05:14 1,5 C 0,6 C -0,5 C 94 % 1002,4 hPa 0,0 l/m 0 min 0 min 0 W/m 0,0 km/h (0 Bft) 97,87 %
30.01.2021 05:16 1,5 C 0,6 C -0,5 C 94 % 1002,4 hPa 0,0 l/m 0 min 0 min 0 W/m 0,0 km/h (0 Bft) 100,00 %
30.01.2021 05:18 1,4 C 0,6 C -0,5 C 94 % 1002,4 hPa 0,0 l/m 0 min 0 min 0 W/m 0,0 km/h (0 Bft) 100,00 %
30.01.2021 05:20 1,4 C 0,6 C -0,5 C 94 % 1002,4 hPa 0,0 l/m 0 min 0 min 0 W/m 0,0 km/h (0 Bft) 100,00 %
30.01.2021 05:22 1,4 C 0,6 C -0,5 C 94 % 1002,4 hPa 0,0 l/m 0 min 0 min 0 W/m 0,0 km/h (0 Bft) 100,00 %
30.01.2021 05:24 1,4 C 0,6 C -0,5 C 94 % 1002,4 hPa 0,0 l/m 0 min 0 min 0 W/m 0,0 km/h (0 Bft) 100,00 %
30.01.2021 05:26 1,4 C 0,6 C -0,5 C 94 % 1002,4 hPa 0,0 l/m 0 min 0 min 0 W/m 3,2 km/h (1 Bft) 97,87 %
30.01.2021 05:28 1,3 C 0,6 C -0,5 C 94 % 1002,4 hPa 0,0 l/m 0 min 0 min 0 W/m 0,0 km/h (0 Bft) 100,00 %
30.01.2021 05:30 1,3 C 0,6 C -0,5 C 94 % 1002,4 hPa 0,0 l/m 0 min 0 min 0 W/m 3,2 km/h (1 Bft) 100,00 %
30.01.2021 05:32 1,3 C 0,6 C -0,5 C 94 % 1002,5 hPa 0,0 l/m 0 min 0 min 0 W/m 0,0 km/h (0 Bft) 100,00 %
30.01.2021 05:34 1,3 C 0,6 C -0,5 C 94 % 1002,4 hPa 0,0 l/m 0 min 0 min 0 W/m 0,0 km/h (0 Bft) 82,98 %
30.01.2021 05:36 1,2 C 0,6 C -0,5 C 94 % 1002,4 hPa 0,0 l/m 0 min 0 min 0 W/m 0,0 km/h (0 Bft) 73,33 %
30.01.2021 05:38 1,2 C 0,6 C -0,5 C 94 % 1002,3 hPa 0,0 l/m 0 min 0 min 0 W/m 0,0 km/h (0 Bft) 100,00 %
30.01.2021 05:40 1,2 C 0,6 C -0,5 C 94 % 1002,3 hPa 0,0 l/m 0 min 0 min 0 W/m 0,0 km/h (0 Bft) 100,00 %
30.01.2021 05:42 1,1 C 0,6 C -0,5 C 94 % 1002,3 hPa 0,0 l/m 0 min 0 min 0 W/m 0,0 km/h (0 Bft) 100,00 %
30.01.2021 05:44 1,1 C 0,6 C -0,5 C 94 % 1002,3 hPa 0,0 l/m 0 min 0 min 0 W/m 0,0 km/h (0 Bft) 100,00 %
30.01.2021 05:46 1,1 C 0,6 C -0,5 C 94 % 1002,2 hPa 0,0 l/m 0 min 0 min 0 W/m 3,2 km/h (1 Bft) 97,87 %
30.01.2021 05:48 1,1 C 0,6 C -0,5 C 94 % 1002,2 hPa 0,0 l/m 0 min 0 min 0 W/m 3,2 km/h (1 Bft) 100,00 %
30.01.2021 05:50 1,1 C 0,6 C -0,5 C 94 % 1002,2 hPa 0,0 l/m 0 min 0 min 0 W/m 0,0 km/h (0 Bft) 100,00 %
30.01.2021 05:52 1,1 C 0,6 C -0,5 C 94 % 1002,3 hPa 0,0 l/m 0 min 0 min 0 W/m 0,0 km/h (0 Bft) 100,00 %
30.01.2021 05:54 1,0 C 0,6 C -0,5 C 94 % 1002,2 hPa 0,0 l/m 0 min 0 min 0 W/m 0,0 km/h (0 Bft) 100,00 %
30.01.2021 05:56 1,0 C 0,6 C -0,5 C 94 % 1002,3 hPa 0,0 l/m 0 min 0 min 0 W/m 0,0 km/h (0 Bft) 100,00 %
30.01.2021 05:58 1,0 C 0,6 C -0,5 C 94 % 1002,3 hPa 0,0 l/m 0 min 0 min 0 W/m 0,0 km/h (0 Bft) 97,87 %
30.01.2021 06:00 1,0 C 0,6 C -0,5 C 94 % 1002,3 hPa 0,0 l/m 0 min 0 min 0 W/m 0,0 km/h (0 Bft) 97,87 %
30.01.2021 06:02 1,0 C 0,6 C -0,5 C 94 % 1002,4 hPa 0,0 l/m 0 min 0 min 0 W/m 0,0 km/h (0 Bft) 97,87 %
30.01.2021 06:04 1,0 C 0,6 C -0,5 C 94 % 1002,3 hPa 0,0 l/m 0 min 0 min 0 W/m 0,0 km/h (0 Bft) 100,00 %
30.01.2021 06:08 1,0 C 0,6 C -0,5 C 94 % 1002,3 hPa 0,0 l/m 0 min 0 min 0 W/m 0,0 km/h (0 Bft) 98,94 %
30.01.2021 06:10 1,0 C 0,6 C -0,5 C 94 % 1002,4 hPa 0,0 l/m 0 min 0 min 0 W/m 0,0 km/h (0 Bft) 97,87 %
30.01.2021 06:12 1,0 C 0,6 C -0,5 C 94 % 1002,4 hPa 0,0 l/m 0 min 0 min 0 W/m 0,0 km/h (0 Bft) 97,87 %
30.01.2021 06:14 1,0 C 0,6 C -0,5 C 94 % 1002,5 hPa 0,0 l/m 0 min 0 min 0 W/m 0,0 km/h (0 Bft) 97,87 %
30.01.2021 06:16 1,0 C 0,6 C -0,5 C 94 % 1002,4 hPa 0,0 l/m 0 min 0 min 0 W/m 0,0 km/h (0 Bft) 95,65 %
30.01.2021 06:18 1,0 C 0,6 C -0,5 C 94 % 1002,3 hPa 0,0 l/m 0 min 0 min 0 W/m 0,0 km/h (0 Bft) 97,87 %
30.01.2021 06:20 0,9 C 0,6 C -0,5 C 94 % 1002,3 hPa 0,0 l/m 0 min 0 min 0 W/m 0,0 km/h (0 Bft) 97,87 %
30.01.2021 06:22 0,9 C 0,6 C -0,5 C 94 % 1002,3 hPa 0,0 l/m 0 min 0 min 0 W/m 0,0 km/h (0 Bft) 97,87 %
30.01.2021 06:24 0,9 C 0,6 C -0,5 C 94 % 1002,3 hPa 0,0 l/m 0 min 0 min 0 W/m 3,2 km/h (1 Bft) 97,87 %
30.01.2021 06:26 0,9 C 0,6 C -0,5 C 94 % 1002,3 hPa 0,0 l/m 0 min 0 min 0 W/m 0,0 km/h (0 Bft) 95,65 %
30.01.2021 06:28 0,9 C 0,6 C -0,5 C 94 % 1002,3 hPa 0,0 l/m 0 min 0 min 0 W/m 0,0 km/h (0 Bft) 97,87 %
30.01.2021 06:30 0,9 C 0,6 C -0,5 C 94 % 1002,3 hPa 0,0 l/m 0 min 0 min 0 W/m 0,0 km/h (0 Bft) 97,87 %
30.01.2021 06:32 0,9 C 0,6 C -0,5 C 94 % 1002,3 hPa 0,0 l/m 0 min 0 min 0 W/m 0,0 km/h (0 Bft) 95,74 %
30.01.2021 06:34 0,9 C 0,6 C -0,5 C 94 % 1002,2 hPa 0,0 l/m 0 min 0 min 0 W/m 0,0 km/h (0 Bft) 95,74 %
30.01.2021 06:36 0,9 C 0,6 C -0,5 C 94 % 1002,3 hPa 0,0 l/m 0 min 0 min 0 W/m 0,0 km/h (0 Bft) 95,74 %
30.01.2021 06:38 0,9 C 0,6 C -0,5 C 94 % 1002,3 hPa 0,0 l/m 0 min 0 min 0 W/m 0,0 km/h (0 Bft) 97,96 %
30.01.2021 06:40 0,9 C 0,6 C -0,5 C 94 % 1002,3 hPa 0,0 l/m 0 min 0 min 0 W/m 0,0 km/h (0 Bft) 97,87 %
30.01.2021 06:42 0,9 C 0,6 C -0,5 C 94 % 1002,3 hPa 0,0 l/m 0 min 0 min 0 W/m 3,2 km/h (1 Bft) 93,62 %
30.01.2021 06:44 0,9 C 0,6 C -0,5 C 94 % 1002,3 hPa 0,0 l/m 0 min 0 min 0 W/m 0,0 km/h (0 Bft) 95,74 %
30.01.2021 06:46 0,9 C 0,6 C -0,5 C 94 % 1002,3 hPa 0,0 l/m 0 min 0 min 0 W/m 0,0 km/h (0 Bft) 95,74 %
30.01.2021 06:48 0,8 C 0,6 C -0,5 C 94 % 1002,3 hPa 0,0 l/m 0 min 0 min 0 W/m 0,0 km/h (0 Bft) 95,74 %
30.01.2021 06:50 0,8 C 0,6 C -0,5 C 94 % 1002,3 hPa 0,0 l/m 0 min 0 min 0 W/m 0,0 km/h (0 Bft) 93,48 %
30.01.2021 06:52 0,8 C 0,6 C -0,5 C 94 % 1002,3 hPa 0,0 l/m 0 min 0 min 0 W/m 3,2 km/h (1 Bft) 91,49 %
30.01.2021 06:54 0,8 C 0,6 C -0,5 C 94 % 1002,3 hPa 0,0 l/m 0 min 0 min 0 W/m 3,2 km/h (1 Bft) 95,74 %
30.01.2021 06:56 0,8 C 0,6 C -0,5 C 94 % 1002,3 hPa 0,0 l/m 0 min 0 min 0 W/m 0,0 km/h (0 Bft) 95,74 %
30.01.2021 06:58 0,8 C 0,6 C -0,5 C 94 % 1002,3 hPa 0,0 l/m 0 min 0 min 0 W/m 0,0 km/h (0 Bft) 97,87 %
30.01.2021 07:00 0,8 C 0,6 C -0,5 C 94 % 1002,3 hPa 0,0 l/m 0 min 0 min 0 W/m 0,0 km/h (0 Bft) 97,87 %
30.01.2021 07:02 0,8 C 0,6 C -0,5 C 94 % 1002,3 hPa 0,0 l/m 0 min 0 min 0 W/m 0,0 km/h (0 Bft) 100,00 %
30.01.2021 07:04 0,8 C 0,6 C -0,5 C 94 % 1002,3 hPa 0,0 l/m 0 min 0 min 0 W/m 0,0 km/h (0 Bft) 97,83 %
30.01.2021 07:06 0,8 C 0,6 C -0,5 C 94 % 1002,3 hPa 0,0 l/m 0 min 0 min 0 W/m 0,0 km/h (0 Bft) 93,62 %
30.01.2021 07:08 0,8 C 0,6 C -0,5 C 94 % 1002,3 hPa 0,0 l/m 0 min 0 min 0 W/m 0,0 km/h (0 Bft) 95,74 %
30.01.2021 07:10 0,8 C 0,6 C -0,5 C 94 % 1002,3 hPa 0,0 l/m 0 min 0 min 0 W/m 0,0 km/h (0 Bft) 95,74 %
30.01.2021 07:12 0,8 C 0,6 C -0,5 C 94 % 1002,3 hPa 0,0 l/m 0 min 0 min 0 W/m 0,0 km/h (0 Bft) 95,74 %
30.01.2021 07:14 0,8 C 0,6 C -0,5 C 94 % 1002,3 hPa 0,0 l/m 0 min 0 min 0 W/m 0,0 km/h (0 Bft) 95,65 %
30.01.2021 07:16 0,8 C 0,6 C -0,5 C 94 % 1002,3 hPa 0,0 l/m 0 min 0 min 0 W/m 0,0 km/h (0 Bft) 93,62 %
30.01.2021 07:18 0,8 C 0,6 C -0,5 C 94 % 1002,3 hPa 0,0 l/m 0 min 0 min 0 W/m 0,0 km/h (0 Bft) 93,62 %
30.01.2021 07:20 0,8 C 0,6 C -0,5 C 94 % 1002,3 hPa 0,0 l/m 0 min 0 min 0 W/m 0,0 km/h (0 Bft) 95,74 %
30.01.2021 07:22 0,8 C 0,6 C -0,5 C 94 % 1002,4 hPa 0,0 l/m 0 min 0 min 0 W/m 0,0 km/h (0 Bft) 95,74 %
30.01.2021 07:24 0,8 C 0,6 C -0,5 C 94 % 1002,4 hPa 0,0 l/m 0 min 0 min 0 W/m 0,0 km/h (0 Bft) 93,62 %
30.01.2021 07:26 0,8 C 0,6 C -0,5 C 94 % 1002,4 hPa 0,0 l/m 0 min 0 min 0 W/m 0,0 km/h (0 Bft) 97,83 %
30.01.2021 07:28 0,8 C 0,6 C -0,5 C 94 % 1002,3 hPa 0,0 l/m 0 min 0 min 0 W/m 0,0 km/h (0 Bft) 97,87 %
30.01.2021 07:30 0,8 C 0,6 C -0,5 C 94 % 1002,3 hPa 0,0 l/m 0 min 0 min 0 W/m 6,4 km/h (2 Bft) 97,87 %
30.01.2021 07:32 0,8 C 0,6 C -0,5 C 94 % 1002,4 hPa 0,0 l/m 0 min 0 min 0 W/m 0,0 km/h (0 Bft) 97,87 %
30.01.2021 07:34 0,8 C 0,6 C -1,1 C 94 % 1002,4 hPa 0,0 l/m 0 min 0 min 0 W/m 0,0 km/h (0 Bft) 97,87 %
30.01.2021 07:36 0,8 C 0,6 C -1,1 C 94 % 1002,4 hPa 0,0 l/m 0 min 0 min 0 W/m 0,0 km/h (0 Bft) 95,74 %
30.01.2021 07:38 0,8 C 0,6 C -1,1 C 94 % 1002,4 hPa 0,0 l/m 0 min 0 min 0 W/m 0,0 km/h (0 Bft) 97,83 %
30.01.2021 07:40 0,8 C 0,6 C -1,1 C 94 % 1002,5 hPa 0,0 l/m 0 min 0 min 0 W/m 0,0 km/h (0 Bft) 97,87 %
30.01.2021 07:42 0,8 C 0,6 C -1,1 C 94 % 1002,4 hPa 0,0 l/m 0 min 0 min 0 W/m 0,0 km/h (0 Bft) 97,87 %
30.01.2021 07:44 0,8 C 0,6 C -1,1 C 94 % 1002,5 hPa 0,0 l/m 0 min 0 min 0 W/m 0,0 km/h (0 Bft) 97,87 %
30.01.2021 07:46 0,8 C 0,6 C -1,1 C 94 % 1002,5 hPa 0,0 l/m 0 min 0 min 0 W/m 0,0 km/h (0 Bft) 97,87 %
30.01.2021 07:48 0,8 C 0,6 C -1,1 C 94 % 1002,5 hPa 0,0 l/m 0 min 0 min 0 W/m 0,0 km/h (0 Bft) 97,87 %
30.01.2021 07:50 0,8 C 0,6 C -1,1 C 94 % 1002,5 hPa 0,0 l/m 0 min 0 min 0 W/m 0,0 km/h (0 Bft) 97,83 %
30.01.2021 07:52 0,8 C 0,6 C -1,1 C 93 % 1002,5 hPa 0,0 l/m 0 min 0 min 0 W/m 0,0 km/h (0 Bft) 97,87 %
30.01.2021 07:54 0,8 C 0,6 C -1,1 C 93 % 1002,4 hPa 0,0 l/m 0 min 0 min 0 W/m 0,0 km/h (0 Bft) 97,87 %
30.01.2021 07:56 0,8 C 0,6 C -1,1 C 93 % 1002,4 hPa 0,0 l/m 0 min 0 min 0 W/m 0,0 km/h (0 Bft) 97,87 %
30.01.2021 07:58 0,8 C 0,6 C -1,1 C 93 % 1002,4 hPa 0,0 l/m 0 min 0 min 0 W/m 0,0 km/h (0 Bft) 97,87 %
30.01.2021 08:00 0,7 C 0,6 C -1,1 C 93 % 1002,5 hPa 0,0 l/m 0 min 0 min 0 W/m 0,0 km/h (0 Bft) 97,87 %
30.01.2021 08:02 0,7 C 0,6 C -1,1 C 93 % 1002,6 hPa 0,0 l/m 0 min 0 min 0 W/m 0,0 km/h (0 Bft) 97,83 %
30.01.2021 08:04 0,7 C 0,6 C -1,1 C 93 % 1002,6 hPa 0,0 l/m 0 min 0 min 0 W/m 0,0 km/h (0 Bft) 97,56 %
30.01.2021 08:06 0,7 C 0,6 C -1,1 C 93 % 1002,6 hPa 0,0 l/m 0 min 0 min 0 W/m 0,0 km/h (0 Bft) 96,36 %
30.01.2021 08:08 0,7 C 0,6 C -1,1 C 93 % 1002,7 hPa 0,0 l/m 0 min 0 min 0 W/m 0,0 km/h (0 Bft) 97,87 %
30.01.2021 08:10 0,7 C 0,6 C -1,1 C 93 % 1002,7 hPa 0,0 l/m 0 min 0 min 0 W/m 0,0 km/h (0 Bft) 95,74 %
30.01.2021 08:12 0,7 C 0,6 C -1,1 C 93 % 1002,7 hPa 0,0 l/m 0 min 0 min 0 W/m 0,0 km/h (0 Bft) 97,83 %
30.01.2021 08:14 0,7 C 0,6 C -0,5 C 93 % 1002,6 hPa 0,0 l/m 0 min 0 min 0 W/m 0,0 km/h (0 Bft) 97,87 %
30.01.2021 08:16 0,7 C 0,6 C -1,1 C 93 % 1002,7 hPa 0,0 l/m 0 min 0 min 0 W/m 0,0 km/h (0 Bft) 97,87 %
30.01.2021 08:18 0,7 C 0,6 C -1,1 C 93 % 1002,6 hPa 0,0 l/m 0 min 0 min 0 W/m 0,0 km/h (0 Bft) 95,74 %
30.01.2021 08:20 0,7 C 0,6 C -1,1 C 93 % 1002,7 hPa 0,0 l/m 0 min 0 min 0 W/m 0,0 km/h (0 Bft) 97,87 %
30.01.2021 08:22 0,7 C 0,6 C -1,1 C 93 % 1002,7 hPa 0,0 l/m 0 min 0 min 0 W/m 0,0 km/h (0 Bft) 97,87 %
30.01.2021 08:24 0,7 C 0,6 C -1,1 C 93 % 1002,5 hPa 0,0 l/m 0 min 0 min 0 W/m 3,2 km/h (1 Bft) 97,83 %
30.01.2021 08:26 0,7 C 0,0 C -1,1 C 93 % 1002,5 hPa 0,0 l/m 0 min 0 min 0 W/m 3,2 km/h (1 Bft) 94,00 %
30.01.2021 08:28 0,7 C 0,6 C -1,1 C 93 % 1002,5 hPa 0,0 l/m 0 min 0 min 0 W/m 0,0 km/h (0 Bft) 95,74 %
30.01.2021 08:30 0,7 C 0,6 C -1,1 C 93 % 1002,4 hPa 0,0 l/m 0 min 0 min 0 W/m 0,0 km/h (0 Bft) 97,87 %
30.01.2021 08:32 0,7 C 0,6 C -1,1 C 93 % 1002,4 hPa 0,0 l/m 0 min 0 min 0 W/m 0,0 km/h (0 Bft) 97,87 %
30.01.2021 08:34 0,7 C 0,6 C -1,1 C 93 % 1002,4 hPa 0,0 l/m 0 min 0 min 5 W/m 0,0 km/h (0 Bft) 97,87 %
30.01.2021 08:36 0,6 C 0,0 C -1,1 C 93 % 1002,4 hPa 0,0 l/m 0 min 0 min 7 W/m 0,0 km/h (0 Bft) 97,83 %
30.01.2021 08:38 0,6 C 0,0 C -1,1 C 93 % 1002,4 hPa 0,0 l/m 0 min 0 min 7 W/m 0,0 km/h (0 Bft) 97,87 %
30.01.2021 08:40 0,6 C 0,0 C -1,1 C 92 % 1002,3 hPa 0,0 l/m 0 min 0 min 9 W/m 0,0 km/h (0 Bft) 97,87 %
30.01.2021 08:42 0,6 C 0,0 C -1,1 C 92 % 1002,3 hPa 0,0 l/m 0 min 0 min 10 W/m 0,0 km/h (0 Bft) 97,87 %
30.01.2021 08:44 0,6 C 0,6 C -1,1 C 92 % 1002,3 hPa 0,0 l/m 0 min 0 min 9 W/m 3,2 km/h (1 Bft) 97,87 %
30.01.2021 08:46 0,6 C 0,6 C -1,1 C 92 % 1002,3 hPa 0,0 l/m 0 min 0 min 10 W/m 3,2 km/h (1 Bft) 97,87 %
30.01.2021 08:48 0,6 C 0,6 C -1,1 C 92 % 1002,4 hPa 0,0 l/m 0 min 0 min 11 W/m 0,0 km/h (0 Bft) 97,83 %
30.01.2021 08:50 0,6 C 0,6 C -1,1 C 92 % 1002,4 hPa 0,0 l/m 0 min 0 min 11 W/m 0,0 km/h (0 Bft) 97,87 %
30.01.2021 08:52 0,6 C 0,6 C -1,1 C 92 % 1002,4 hPa 0,0 l/m 0 min 0 min 11 W/m 0,0 km/h (0 Bft) 95,74 %
30.01.2021 08:54 0,6 C 0,6 C -1,1 C 92 % 1002,4 hPa 0,0 l/m 0 min 0 min 11 W/m 0,0 km/h (0 Bft) 97,87 %
30.01.2021 08:56 0,6 C 0,6 C -1,1 C 92 % 1002,4 hPa 0,0 l/m 0 min 0 min 11 W/m 0,0 km/h (0 Bft) 95,74 %
30.01.2021 08:58 0,6 C 0,6 C -1,1 C 92 % 1002,4 hPa 0,0 l/m 0 min 0 min 9 W/m 0,0 km/h (0 Bft) 97,87 %
30.01.2021 09:00 0,6 C 0,6 C -1,1 C 92 % 1002,4 hPa 0,0 l/m 0 min 0 min 11 W/m 0,0 km/h (0 Bft) 100,00 %
30.01.2021 09:02 0,6 C 0,6 C -1,1 C 92 % 1002,4 hPa 0,0 l/m 0 min 0 min 11 W/m 0,0 km/h (0 Bft) 95,83 %
30.01.2021 09:04 0,6 C 0,6 C -1,1 C 92 % 1002,4 hPa 0,0 l/m 0 min 0 min 12 W/m 0,0 km/h (0 Bft) 95,74 %
30.01.2021 09:06 0,6 C 0,6 C -1,1 C 92 % 1002,5 hPa 0,0 l/m 0 min 0 min 12 W/m 0,0 km/h (0 Bft) 95,74 %
30.01.2021 09:08 0,6 C 0,6 C -1,1 C 92 % 1002,5 hPa 0,0 l/m 0 min 0 min 12 W/m 0,0 km/h (0 Bft) 86,96 %
30.01.2021 09:10 0,6 C 0,6 C -1,1 C 92 % 1002,5 hPa 0,0 l/m 0 min 0 min 13 W/m 3,2 km/h (1 Bft) 95,74 %
30.01.2021 09:12 0,6 C 0,6 C -1,1 C 92 % 1002,5 hPa 0,0 l/m 0 min 0 min 14 W/m 0,0 km/h (0 Bft) 91,49 %
30.01.2021 09:14 0,6 C 0,6 C -1,1 C 92 % 1002,6 hPa 0,0 l/m 0 min 0 min 15 W/m 0,0 km/h (0 Bft) 95,65 %
30.01.2021 09:16 0,6 C 0,6 C -1,1 C 91 % 1002,6 hPa 0,0 l/m 0 min 0 min 17 W/m 0,0 km/h (0 Bft) 95,74 %
30.01.2021 09:18 0,6 C 0,6 C -1,1 C 91 % 1002,6 hPa 0,0 l/m 0 min 0 min 19 W/m 0,0 km/h (0 Bft) 95,74 %
30.01.2021 09:20 0,6 C 0,6 C -1,1 C 91 % 1002,5 hPa 0,0 l/m 0 min 0 min 18 W/m 0,0 km/h (0 Bft) 95,74 %
30.01.2021 09:22 0,7 C 0,6 C -1,1 C 91 % 1002,5 hPa 0,0 l/m 0 min 0 min 18 W/m 0,0 km/h (0 Bft) 97,87 %
30.01.2021 09:24 0,7 C 0,6 C -1,1 C 91 % 1002,6 hPa 0,0 l/m 0 min 0 min 18 W/m 0,0 km/h (0 Bft) 95,74 %
30.01.2021 09:26 0,7 C 0,6 C -0,5 C 91 % 1002,5 hPa 0,0 l/m 0 min 0 min 23 W/m 0,0 km/h (0 Bft) 95,65 %
30.01.2021 09:28 0,7 C 0,6 C -0,5 C 91 % 1002,4 hPa 0,0 l/m 0 min 0 min 24 W/m 3,2 km/h (1 Bft) 95,74 %
30.01.2021 09:30 0,8 C 0,6 C -0,5 C 91 % 1002,5 hPa 0,0 l/m 0 min 0 min 26 W/m 3,2 km/h (1 Bft) 89,36 %
30.01.2021 09:32 0,7 C 0,6 C -1,1 C 91 % 1002,4 hPa 0,0 l/m 0 min 0 min 25 W/m 0,0 km/h (0 Bft) 95,74 %
30.01.2021 09:34 0,7 C 0,6 C -1,1 C 91 % 1002,4 hPa 0,0 l/m 0 min 0 min 25 W/m 0,0 km/h (0 Bft) 91,49 %
30.01.2021 09:36 0,8 C 0,6 C -0,5 C 91 % 1002,4 hPa 0,0 l/m 0 min 0 min 25 W/m 0,0 km/h (0 Bft) 93,62 %
30.01.2021 09:38 0,8 C 0,6 C -0,5 C 91 % 1002,4 hPa 0,0 l/m 0 min 0 min 25 W/m 0,0 km/h (0 Bft) 96,55 %
30.01.2021 09:40 0,8 C 0,6 C -0,5 C 91 % 1002,4 hPa 0,0 l/m 0 min 0 min 26 W/m 3,2 km/h (1 Bft) 94,29 %
30.01.2021 09:42 0,8 C 0,6 C -0,5 C 91 % 1002,3 hPa 0,0 l/m 0 min 0 min 25 W/m 3,2 km/h (1 Bft) 95,74 %
30.01.2021 09:44 0,8 C 0,6 C -0,5 C 91 % 1002,4 hPa 0,0 l/m 0 min 0 min 25 W/m 0,0 km/h (0 Bft) 95,74 %
30.01.2021 09:46 0,8 C 0,6 C -0,5 C 91 % 1002,4 hPa 0,0 l/m 0 min 0 min 24 W/m 0,0 km/h (0 Bft) 93,62 %
30.01.2021 09:48 0,8 C 0,6 C -0,5 C 91 % 1002,3 hPa 0,0 l/m 0 min 0 min 21 W/m 0,0 km/h (0 Bft) 95,65 %
30.01.2021 09:50 0,8 C 0,6 C -0,5 C 91 % 1002,4 hPa 0,0 l/m 0 min 0 min 21 W/m 0,0 km/h (0 Bft) 95,74 %
30.01.2021 09:52 0,8 C 0,6 C -0,5 C 90 % 1002,3 hPa 0,0 l/m 0 min 0 min 25 W/m 0,0 km/h (0 Bft) 93,62 %
30.01.2021 09:54 0,8 C 0,6 C -0,5 C 90 % 1002,4 hPa 0,0 l/m 0 min 0 min 32 W/m 0,0 km/h (0 Bft) 95,74 %
30.01.2021 09:56 0,8 C 0,6 C -0,5 C 90 % 1002,4 hPa 0,0 l/m 0 min 0 min 33 W/m 0,0 km/h (0 Bft) 97,87 %
30.01.2021 09:58 0,9 C 0,6 C -0,5 C 90 % 1002,4 hPa 0,0 l/m 0 min 0 min 36 W/m 0,0 km/h (0 Bft) 97,87 %
30.01.2021 10:00 0,9 C 0,6 C -0,5 C 90 % 1002,4 hPa 0,0 l/m 0 min 0 min 31 W/m 0,0 km/h (0 Bft) 97,87 %
30.01.2021 10:02 0,9 C 0,6 C -0,5 C 90 % 1002,3 hPa 0,0 l/m 0 min 0 min 33 W/m 0,0 km/h (0 Bft) 100,00 %
30.01.2021 10:04 0,9 C 0,6 C -0,5 C 90 % 1002,3 hPa 0,0 l/m 0 min 0 min 35 W/m 0,0 km/h (0 Bft) 100,00 %
30.01.2021 10:06 0,9 C 0,6 C -0,5 C 90 % 1002,4 hPa 0,0 l/m 0 min 0 min 33 W/m 0,0 km/h (0 Bft) 100,00 %
30.01.2021 10:08 0,9 C 0,6 C -0,5 C 90 % 1002,3 hPa 0,0 l/m 0 min 0 min 30 W/m 0,0 km/h (0 Bft) 97,87 %
30.01.2021 10:10 0,9 C 0,6 C -0,5 C 90 % 1002,4 hPa 0,0 l/m 0 min 0 min 28 W/m 0,0 km/h (0 Bft) 100,00 %
30.01.2021 10:12 0,9 C 0,6 C -0,5 C 90 % 1002,4 hPa 0,0 l/m 0 min 0 min 28 W/m 0,0 km/h (0 Bft) 100,00 %
30.01.2021 10:14 0,9 C 0,6 C -0,5 C 90 % 1002,4 hPa 0,0 l/m 0 min 0 min 30 W/m 0,0 km/h (0 Bft) 100,00 %
30.01.2021 10:16 0,9 C 0,6 C -0,5 C 90 % 1002,4 hPa 0,0 l/m 0 min 0 min 32 W/m 0,0 km/h (0 Bft) 100,00 %
30.01.2021 10:18 0,9 C 0,6 C -0,5 C 89 % 1002,4 hPa 0,0 l/m 0 min 0 min 31 W/m 0,0 km/h (0 Bft) 100,00 %
30.01.2021 10:20 0,9 C 0,6 C -0,5 C 89 % 1002,5 hPa 0,0 l/m 0 min 0 min 27 W/m 0,0 km/h (0 Bft) 100,00 %
30.01.2021 10:22 0,9 C 0,6 C -0,5 C 89 % 1002,5 hPa 0,0 l/m 0 min 0 min 28 W/m 0,0 km/h (0 Bft) 100,00 %
30.01.2021 10:24 0,9 C 0,6 C -0,5 C 89 % 1002,4 hPa 0,0 l/m 0 min 0 min 31 W/m 0,0 km/h (0 Bft) 100,00 %
30.01.2021 10:26 0,9 C 0,6 C -0,5 C 89 % 1002,4 hPa 0,0 l/m 0 min 0 min 32 W/m 0,0 km/h (0 Bft) 100,00 %
30.01.2021 10:28 0,9 C 0,6 C -0,5 C 89 % 1002,5 hPa 0,0 l/m 0 min 0 min 32 W/m 0,0 km/h (0 Bft) 100,00 %
30.01.2021 10:30 0,9 C 0,6 C -0,5 C 89 % 1002,4 hPa 0,0 l/m 0 min 0 min 32 W/m 0,0 km/h (0 Bft) 100,00 %
30.01.2021 10:32 0,9 C 0,6 C -0,5 C 89 % 1002,4 hPa 0,0 l/m 0 min 0 min 33 W/m 0,0 km/h (0 Bft) 97,87 %
30.01.2021 10:34 0,9 C 0,6 C -0,5 C 89 % 1002,4 hPa 0,0 l/m 0 min 0 min 33 W/m 0,0 km/h (0 Bft) 100,00 %
30.01.2021 10:36 0,9 C 0,6 C -0,5 C 89 % 1002,4 hPa 0,0 l/m 0 min 0 min 36 W/m 0,0 km/h (0 Bft) 97,87 %
30.01.2021 10:38 0,9 C 0,6 C -0,5 C 89 % 1002,3 hPa 0,0 l/m 0 min 0 min 39 W/m 0,0 km/h (0 Bft) 97,87 %
30.01.2021 10:40 0,9 C 0,6 C -0,5 C 89 % 1002,3 hPa 0,0 l/m 0 min 0 min 41 W/m 0,0 km/h (0 Bft) 100,00 %
30.01.2021 10:42 0,9 C 0,6 C -0,5 C 89 % 1002,3 hPa 0,0 l/m 0 min 0 min 43 W/m 0,0 km/h (0 Bft) 100,00 %
30.01.2021 10:44 0,9 C 0,6 C -0,5 C 89 % 1002,2 hPa 0,0 l/m 0 min 0 min 46 W/m 0,0 km/h (0 Bft) 100,00 %
30.01.2021 10:46 0,9 C 0,6 C -0,5 C 89 % 1002,3 hPa 0,0 l/m 0 min 0 min 46 W/m 0,0 km/h (0 Bft) 100,00 %
30.01.2021 10:48 0,9 C 1,1 C -0,5 C 89 % 1002,3 hPa 0,0 l/m 0 min 0 min 49 W/m 0,0 km/h (0 Bft) 100,00 %
30.01.2021 10:50 0,9 C 1,1 C -0,5 C 89 % 1002,3 hPa 0,0 l/m 0 min 0 min 51 W/m 0,0 km/h (0 Bft) 100,00 %
30.01.2021 10:52 1,0 C 1,1 C -0,5 C 89 % 1002,3 hPa 0,0 l/m 0 min 0 min 53 W/m 0,0 km/h (0 Bft) 100,00 %
30.01.2021 10:54 1,0 C 1,1 C -0,5 C 88 % 1002,2 hPa 0,0 l/m 0 min 0 min 58 W/m 0,0 km/h (0 Bft) 100,00 %
30.01.2021 10:56 1,0 C 1,1 C -0,5 C 88 % 1002,2 hPa 0,0 l/m 0 min 0 min 64 W/m 0,0 km/h (0 Bft) 100,00 %
30.01.2021 10:58 1,0 C 1,1 C -0,5 C 88 % 1002,3 hPa 0,0 l/m 0 min 0 min 68 W/m 0,0 km/h (0 Bft) 100,00 %
30.01.2021 11:00 1,0 C 1,1 C -0,5 C 88 % 1002,3 hPa 0,0 l/m 0 min 0 min 64 W/m 0,0 km/h (0 Bft) 100,00 %
30.01.2021 11:02 1,0 C 1,1 C -0,5 C 88 % 1002,3 hPa 0,0 l/m 0 min 0 min 57 W/m 0,0 km/h (0 Bft) 97,87 %
30.01.2021 11:04 1,0 C 1,1 C -0,5 C 88 % 1002,3 hPa 0,0 l/m 0 min 0 min 60 W/m 0,0 km/h (0 Bft) 100,00 %
30.01.2021 11:06 1,1 C 1,1 C -0,5 C 88 % 1002,3 hPa 0,0 l/m 0 min 0 min 59 W/m 0,0 km/h (0 Bft) 100,00 %
30.01.2021 11:08 1,0 C 1,1 C -0,5 C 88 % 1002,4 hPa 0,0 l/m 0 min 0 min 65 W/m 0,0 km/h (0 Bft) 100,00 %
30.01.2021 11:10 1,1 C 1,1 C -0,5 C 88 % 1002,3 hPa 0,0 l/m 0 min 0 min 74 W/m 0,0 km/h (0 Bft) 100,00 %
30.01.2021 11:12 1,1 C 1,1 C -0,5 C 88 % 1002,3 hPa 0,0 l/m 0 min 0 min 77 W/m 0,0 km/h (0 Bft) 100,00 %
30.01.2021 11:14 1,1 C 1,1 C 0,0 C 88 % 1002,2 hPa 0,0 l/m 0 min 0 min 76 W/m 0,0 km/h (0 Bft) 100,00 %
30.01.2021 11:16 1,1 C 1,1 C 0,0 C 88 % 1002,2 hPa 0,0 l/m 0 min 0 min 77 W/m 3,2 km/h (1 Bft) 100,00 %
30.01.2021 11:18 1,1 C 1,1 C 0,0 C 88 % 1002,2 hPa 0,0 l/m 0 min 0 min 86 W/m 0,0 km/h (0 Bft) 82,61 %
30.01.2021 11:20 1,2 C 1,1 C 0,0 C 88 % 1002,1 hPa 0,0 l/m 0 min 0 min 92 W/m 3,2 km/h (1 Bft) 72,73 %
30.01.2021 11:22 1,2 C 1,1 C 0,0 C 88 % 1002,1 hPa 0,0 l/m 0 min 0 min 91 W/m 0,0 km/h (0 Bft) 97,87 %
30.01.2021 11:24 1,3 C 1,1 C 0,0 C 88 % 1002,1 hPa 0,0 l/m 0 min 0 min 91 W/m 0,0 km/h (0 Bft) 100,00 %
30.01.2021 11:26 1,3 C 1,1 C 0,0 C 88 % 1002,1 hPa 0,0 l/m 0 min 0 min 89 W/m 0,0 km/h (0 Bft) 100,00 %
30.01.2021 11:28 1,3 C 1,7 C 0,0 C 88 % 1002,1 hPa 0,0 l/m 0 min 0 min 80 W/m 0,0 km/h (0 Bft) 100,00 %
30.01.2021 11:30 1,3 C 1,7 C 0,0 C 88 % 1002,1 hPa 0,0 l/m 0 min 0 min 84 W/m 0,0 km/h (0 Bft) 100,00 %
30.01.2021 11:32 1,4 C 1,1 C 0,0 C 88 % 1002,1 hPa 0,0 l/m 0 min 0 min 83 W/m 0,0 km/h (0 Bft) 100,00 %
30.01.2021 11:34 1,4 C 1,7 C 0,0 C 87 % 1002,1 hPa 0,0 l/m 0 min 0 min 87 W/m 0,0 km/h (0 Bft) 100,00 %
30.01.2021 11:36 1,4 C 1,7 C 0,0 C 87 % 1002,0 hPa 0,0 l/m 0 min 0 min 96 W/m 0,0 km/h (0 Bft) 100,00 %
30.01.2021 11:38 1,4 C 1,7 C 0,0 C 87 % 1002,0 hPa 0,0 l/m 0 min 0 min 95 W/m 3,2 km/h (1 Bft) 97,87 %
30.01.2021 11:40 1,4 C 1,7 C 0,0 C 87 % 1002,0 hPa 0,0 l/m 0 min 0 min 90 W/m 0,0 km/h (0 Bft) 100,00 %
30.01.2021 11:42 1,4 C 1,7 C 0,0 C 87 % 1001,9 hPa 0,0 l/m 0 min 0 min 90 W/m 3,2 km/h (1 Bft) 100,00 %
30.01.2021 11:44 1,5 C 1,7 C 0,0 C 87 % 1001,9 hPa 0,0 l/m 0 min 0 min 93 W/m 0,0 km/h (0 Bft) 100,00 %
30.01.2021 11:46 1,5 C 1,7 C 0,0 C 87 % 1001,9 hPa 0,0 l/m 0 min 0 min 93 W/m 3,2 km/h (1 Bft) 100,00 %
30.01.2021 11:48 1,5 C 1,7 C 0,0 C 87 % 1001,9 hPa 0,0 l/m 0 min 0 min 94 W/m 0,0 km/h (0 Bft) 100,00 %
30.01.2021 11:50 1,5 C 1,7 C 0,0 C 86 % 1001,8 hPa 0,0 l/m 0 min 0 min 94 W/m 0,0 km/h (0 Bft) 97,87 %
30.01.2021 11:52 1,5 C 1,7 C 0,0 C 86 % 1001,9 hPa 0,0 l/m 0 min 0 min 93 W/m 0,0 km/h (0 Bft) 97,83 %
30.01.2021 11:54 1,5 C 1,7 C 0,0 C 86 % 1001,9 hPa 0,0 l/m 0 min 0 min 92 W/m 0,0 km/h (0 Bft) 97,87 %
30.01.2021 11:56 1,6 C 1,7 C 0,0 C 86 % 1001,9 hPa 0,0 l/m 0 min 0 min 92 W/m 0,0 km/h (0 Bft) 97,87 %
30.01.2021 11:58 1,6 C 1,7 C 0,0 C 86 % 1001,9 hPa 0,0 l/m 0 min 0 min 87 W/m 0,0 km/h (0 Bft) 95,83 %
30.01.2021 12:00 1,6 C 1,7 C 0,0 C 86 % 1001,8 hPa 0,0 l/m 0 min 0 min 82 W/m 3,2 km/h (1 Bft) 97,87 %
30.01.2021 12:02 1,6 C 1,7 C 0,0 C 86 % 1001,9 hPa 0,0 l/m 0 min 0 min 77 W/m 0,0 km/h (0 Bft) 97,92 %
30.01.2021 12:04 1,6 C 1,7 C 0,0 C 86 % 1001,8 hPa 0,0 l/m 0 min 0 min 73 W/m 0,0 km/h (0 Bft) 93,62 %
30.01.2021 12:08 1,6 C 1,7 C 0,0 C 86 % 1001,8 hPa 0,0 l/m 0 min 0 min 70 W/m 0,0 km/h (0 Bft) 94,68 %
30.01.2021 12:10 1,6 C 1,7 C 0,0 C 86 % 1001,8 hPa 0,0 l/m 0 min 0 min 67 W/m 0,0 km/h (0 Bft) 95,74 %
30.01.2021 12:12 1,6 C 1,7 C 0,0 C 86 % 1001,7 hPa 0,0 l/m 0 min 0 min 67 W/m 0,0 km/h (0 Bft) 93,62 %
30.01.2021 12:14 1,6 C 1,7 C 0,0 C 86 % 1001,7 hPa 0,0 l/m 0 min 0 min 66 W/m 0,0 km/h (0 Bft) 95,74 %
30.01.2021 12:16 1,6 C 1,7 C 0,0 C 86 % 1001,8 hPa 0,0 l/m 0 min 0 min 62 W/m 0,0 km/h (0 Bft) 95,65 %
30.01.2021 12:18 1,7 C 1,7 C 0,0 C 86 % 1001,7 hPa 0,0 l/m 0 min 0 min 61 W/m 0,0 km/h (0 Bft) 93,62 %
30.01.2021 12:20 1,7 C 1,7 C 0,0 C 86 % 1001,7 hPa 0,0 l/m 0 min 0 min 60 W/m 0,0 km/h (0 Bft) 95,74 %
30.01.2021 12:22 1,7 C 1,7 C 0,0 C 86 % 1001,7 hPa 0,0 l/m 0 min 0 min 62 W/m 0,0 km/h (0 Bft) 93,48 %
30.01.2021 12:24 1,7 C 1,7 C 0,0 C 85 % 1001,7 hPa 0,0 l/m 0 min 0 min 65 W/m 0,0 km/h (0 Bft) 97,87 %
30.01.2021 12:26 1,7 C 1,7 C 0,0 C 85 % 1001,6 hPa 0,0 l/m 0 min 0 min 69 W/m 0,0 km/h (0 Bft) 95,74 %
30.01.2021 12:28 1,7 C 1,7 C 0,0 C 85 % 1001,6 hPa 0,0 l/m 0 min 0 min 71 W/m 0,0 km/h (0 Bft) 93,62 %
30.01.2021 12:30 1,7 C 1,7 C 0,0 C 85 % 1001,6 hPa 0,0 l/m 0 min 0 min 72 W/m 0,0 km/h (0 Bft) 95,74 %
30.01.2021 12:32 1,7 C 1,7 C 0,0 C 85 % 1001,5 hPa 0,0 l/m 0 min 0 min 71 W/m 0,0 km/h (0 Bft) 95,74 %
30.01.2021 12:34 1,7 C 1,7 C 0,0 C 85 % 1001,5 hPa 0,0 l/m 0 min 0 min 70 W/m 0,0 km/h (0 Bft) 95,74 %
30.01.2021 12:36 1,8 C 1,7 C 0,0 C 86 % 1001,5 hPa 0,0 l/m 0 min 0 min 70 W/m 0,0 km/h (0 Bft) 97,87 %
30.01.2021 12:38 1,8 C 1,7 C 0,0 C 86 % 1001,4 hPa 0,0 l/m 0 min 0 min 70 W/m 0,0 km/h (0 Bft) 97,87 %
30.01.2021 12:40 1,8 C 1,7 C 0,0 C 86 % 1001,5 hPa 0,0 l/m 0 min 0 min 70 W/m 0,0 km/h (0 Bft) 96,30 %
30.01.2021 12:42 1,8 C 1,7 C 0,0 C 86 % 1001,4 hPa 0,0 l/m 0 min 0 min 71 W/m 0,0 km/h (0 Bft) 97,83 %
30.01.2021 12:44 1,8 C 1,7 C 0,0 C 86 % 1001,4 hPa 0,0 l/m 0 min 0 min 73 W/m 3,2 km/h (1 Bft) 95,74 %
30.01.2021 12:46 1,8 C 1,7 C 0,0 C 86 % 1001,4 hPa 0,0 l/m 0 min 0 min 75 W/m 0,0 km/h (0 Bft) 95,74 %
30.01.2021 12:48 1,8 C 1,7 C 0,0 C 86 % 1001,3 hPa 0,0 l/m 0 min 0 min 77 W/m 3,2 km/h (1 Bft) 97,87 %
30.01.2021 12:50 1,9 C 1,7 C 0,0 C 86 % 1001,3 hPa 0,0 l/m 0 min 0 min 80 W/m 0,0 km/h (0 Bft) 95,74 %
30.01.2021 12:52 1,9 C 2,2 C 0,0 C 86 % 1001,3 hPa 0,0 l/m 0 min 0 min 82 W/m 0,0 km/h (0 Bft) 97,87 %
30.01.2021 12:54 1,9 C 2,2 C 0,6 C 86 % 1001,2 hPa 0,0 l/m 0 min 0 min 84 W/m 0,0 km/h (0 Bft) 100,00 %
30.01.2021 12:56 1,9 C 2,2 C 0,6 C 86 % 1001,2 hPa 0,0 l/m 0 min 0 min 87 W/m 0,0 km/h (0 Bft) 100,00 %
30.01.2021 12:58 1,9 C 2,2 C 0,6 C 86 % 1001,2 hPa 0,0 l/m 0 min 0 min 94 W/m 0,0 km/h (0 Bft) 97,87 %
30.01.2021 13:00 2,0 C 2,2 C 0,6 C 86 % 1001,2 hPa 0,0 l/m 0 min 0 min 100 W/m 0,0 km/h (0 Bft) 97,87 %
30.01.2021 13:02 2,0 C 2,2 C 0,6 C 86 % 1001,2 hPa 0,0 l/m 0 min 0 min 105 W/m 0,0 km/h (0 Bft) 94,44 %
30.01.2021 13:04 2,0 C 2,2 C 0,6 C 86 % 1001,2 hPa 0,0 l/m 0 min 0 min 109 W/m 0,0 km/h (0 Bft) 97,87 %
30.01.2021 13:06 2,0 C 2,2 C 0,6 C 85 % 1001,1 hPa 0,0 l/m 0 min 0 min 113 W/m 0,0 km/h (0 Bft) 95,74 %
30.01.2021 13:08 2,1 C 2,2 C 0,6 C 85 % 1001,1 hPa 0,0 l/m 0 min 0 min 118 W/m 0,0 km/h (0 Bft) 97,87 %
30.01.2021 13:10 2,1 C 2,8 C 0,6 C 85 % 1001,1 hPa 0,0 l/m 0 min 0 min 121 W/m 0,0 km/h (0 Bft) 97,83 %
30.01.2021 13:12 2,1 C 2,8 C 0,6 C 85 % 1001,0 hPa 0,0 l/m 0 min 0 min 123 W/m 0,0 km/h (0 Bft) 95,74 %
30.01.2021 13:14 2,2 C 2,8 C 1,2 C 85 % 1001,0 hPa 0,0 l/m 0 min 0 min 125 W/m 0,0 km/h (0 Bft) 97,87 %
30.01.2021 13:16 2,3 C 2,8 C 1,2 C 85 % 1001,0 hPa 0,0 l/m 0 min 0 min 125 W/m 3,2 km/h (1 Bft) 97,87 %
30.01.2021 13:18 2,3 C 2,8 C 1,2 C 85 % 1001,0 hPa 0,0 l/m 0 min 0 min 122 W/m 0,0 km/h (0 Bft) 100,00 %
30.01.2021 13:20 2,3 C 2,8 C 1,2 C 85 % 1000,9 hPa 0,0 l/m 0 min 0 min 120 W/m 0,0 km/h (0 Bft) 97,87 %
30.01.2021 13:22 2,3 C 2,8 C 1,2 C 85 % 1001,0 hPa 0,0 l/m 0 min 0 min 118 W/m 0,0 km/h (0 Bft) 93,62 %
30.01.2021 13:24 2,4 C 2,8 C 1,2 C 85 % 1000,9 hPa 0,0 l/m 0 min 0 min 114 W/m 0,0 km/h (0 Bft) 97,87 %
30.01.2021 13:26 2,4 C 2,8 C 0,6 C 85 % 1000,9 hPa 0,0 l/m 0 min 0 min 108 W/m 0,0 km/h (0 Bft) 97,83 %
30.01.2021 13:28 2,4 C 2,8 C 0,6 C 85 % 1000,9 hPa 0,0 l/m 0 min 0 min 102 W/m 0,0 km/h (0 Bft) 97,87 %
30.01.2021 13:30 2,4 C 2,8 C 0,6 C 84 % 1000,9 hPa 0,0 l/m 0 min 0 min 98 W/m 0,0 km/h (0 Bft) 97,87 %
30.01.2021 13:32 2,4 C 2,8 C 0,6 C 84 % 1000,8 hPa 0,0 l/m 0 min 0 min 92 W/m 3,2 km/h (1 Bft) 95,74 %
30.01.2021 13:34 2,4 C 2,8 C 0,6 C 84 % 1000,8 hPa 0,0 l/m 0 min 0 min 88 W/m 0,0 km/h (0 Bft) 97,87 %
30.01.2021 13:36 2,5 C 2,8 C 0,6 C 84 % 1000,8 hPa 0,0 l/m 0 min 0 min 86 W/m 0,0 km/h (0 Bft) 97,87 %
30.01.2021 13:38 2,5 C 2,8 C 0,6 C 84 % 1000,8 hPa 0,0 l/m 0 min 0 min 86 W/m 0,0 km/h (0 Bft) 97,83 %
30.01.2021 13:40 2,5 C 2,8 C 0,6 C 84 % 1000,8 hPa 0,0 l/m 0 min 0 min 89 W/m 0,0 km/h (0 Bft) 97,87 %
30.01.2021 13:42 2,5 C 2,8 C 0,6 C 84 % 1000,7 hPa 0,0 l/m 0 min 0 min 90 W/m 0,0 km/h (0 Bft) 97,87 %
30.01.2021 13:44 2,5 C 2,8 C 0,6 C 84 % 1000,7 hPa 0,0 l/m 0 min 0 min 97 W/m 0,0 km/h (0 Bft) 97,87 %
30.01.2021 13:46 2,5 C 2,8 C 0,6 C 84 % 1000,7 hPa 0,0 l/m 0 min 0 min 102 W/m 0,0 km/h (0 Bft) 97,87 %
30.01.2021 13:48 2,5 C 2,8 C 0,6 C 84 % 1000,7 hPa 0,0 l/m 0 min 0 min 108 W/m 0,0 km/h (0 Bft) 95,74 %
30.01.2021 13:50 2,5 C 2,8 C 0,6 C 84 % 1000,7 hPa 0,0 l/m 0 min 0 min 114 W/m 0,0 km/h (0 Bft) 97,83 %
30.01.2021 13:52 2,5 C 2,8 C 1,2 C 84 % 1000,7 hPa 0,0 l/m 0 min 0 min 127 W/m 0,0 km/h (0 Bft) 97,87 %
30.01.2021 13:54 2,6 C 2,8 C 1,2 C 84 % 1000,7 hPa 0,0 l/m 0 min 0 min 135 W/m 0,0 km/h (0 Bft) 97,87 %
30.01.2021 13:56 2,6 C 2,8 C 1,2 C 84 % 1000,6 hPa 0,0 l/m 0 min 0 min 139 W/m 0,0 km/h (0 Bft) 95,74 %
30.01.2021 13:58 2,6 C 2,8 C 1,2 C 84 % 1000,6 hPa 0,0 l/m 0 min 0 min 141 W/m 0,0 km/h (0 Bft) 97,87 %
30.01.2021 14:00 2,6 C 2,8 C 1,2 C 84 % 1000,5 hPa 0,0 l/m 0 min 0 min 141 W/m 0,0 km/h (0 Bft) 95,74 %
30.01.2021 14:02 2,7 C 2,8 C 1,2 C 83 % 1000,6 hPa 0,0 l/m 0 min 0 min 139 W/m 0,0 km/h (0 Bft) 97,83 %
30.01.2021 14:04 2,7 C 3,3 C 1,2 C 84 % 1000,5 hPa 0,0 l/m 0 min 0 min 137 W/m 0,0 km/h (0 Bft) 100,00 %
30.01.2021 14:06 2,7 C 2,8 C 1,2 C 83 % 1000,5 hPa 0,0 l/m 0 min 0 min 131 W/m 0,0 km/h (0 Bft) 97,87 %
30.01.2021 14:08 2,8 C 3,3 C 1,2 C 83 % 1000,5 hPa 0,0 l/m 0 min 0 min 128 W/m 0,0 km/h (0 Bft) 100,00 %
30.01.2021 14:10 2,8 C 3,3 C 1,2 C 84 % 1000,5 hPa 0,0 l/m 0 min 0 min 130 W/m 0,0 km/h (0 Bft) 100,00 %
30.01.2021 14:12 2,8 C 3,3 C 1,2 C 84 % 1000,5 hPa 0,0 l/m 0 min 0 min 128 W/m 3,2 km/h (1 Bft) 100,00 %
30.01.2021 14:14 2,9 C 3,3 C 1,2 C 84 % 1000,4 hPa 0,0 l/m 0 min 0 min 128 W/m 0,0 km/h (0 Bft) 100,00 %
30.01.2021 14:16 2,9 C 3,3 C 1,2 C 83 % 1000,5 hPa 0,0 l/m 0 min 0 min 125 W/m 0,0 km/h (0 Bft) 95,74 %
30.01.2021 14:18 2,9 C 3,3 C 1,2 C 83 % 1000,5 hPa 0,0 l/m 0 min 0 min 125 W/m 0,0 km/h (0 Bft) 100,00 %
30.01.2021 14:20 2,9 C 3,3 C 1,2 C 83 % 1000,6 hPa 0,0 l/m 0 min 0 min 126 W/m 0,0 km/h (0 Bft) 100,00 %
30.01.2021 14:22 2,9 C 3,3 C 1,2 C 83 % 1000,5 hPa 0,0 l/m 0 min 0 min 123 W/m 3,2 km/h (1 Bft) 97,87 %
30.01.2021 14:24 2,9 C 3,3 C 1,2 C 83 % 1000,5 hPa 0,0 l/m 0 min 0 min 116 W/m 0,0 km/h (0 Bft) 97,87 %
30.01.2021 14:26 3,0 C 3,3 C 1,2 C 83 % 1000,6 hPa 0,0 l/m 0 min 0 min 113 W/m 0,0 km/h (0 Bft) 97,83 %
30.01.2021 14:28 3,0 C 3,3 C 1,2 C 83 % 1000,5 hPa 0,0 l/m 0 min 0 min 111 W/m 0,0 km/h (0 Bft) 97,87 %
30.01.2021 14:30 3,0 C 3,3 C 1,2 C 83 % 1000,5 hPa 0,0 l/m 0 min 0 min 106 W/m 0,0 km/h (0 Bft) 97,87 %
30.01.2021 14:32 3,0 C 2,8 C 1,2 C 83 % 1000,5 hPa 0,0 l/m 0 min 0 min 101 W/m 3,2 km/h (1 Bft) 97,87 %
30.01.2021 14:34 3,0 C 2,8 C 1,2 C 83 % 1000,4 hPa 0,0 l/m 0 min 0 min 99 W/m 3,2 km/h (1 Bft) 97,87 %
30.01.2021 14:36 3,0 C 2,8 C 1,2 C 83 % 1000,3 hPa 0,0 l/m 0 min 0 min 91 W/m 0,0 km/h (0 Bft) 95,65 %
30.01.2021 14:38 3,0 C 2,8 C 1,2 C 83 % 1000,3 hPa 0,0 l/m 0 min 0 min 84 W/m 0,0 km/h (0 Bft) 97,87 %
30.01.2021 14:40 3,0 C 2,8 C 0,6 C 83 % 1000,2 hPa 0,0 l/m 0 min 0 min 78 W/m 0,0 km/h (0 Bft) 93,62 %
30.01.2021 14:42 3,0 C 2,8 C 0,6 C 83 % 1000,2 hPa 0,0 l/m 0 min 0 min 76 W/m 0,0 km/h (0 Bft) 97,87 %
30.01.2021 14:44 3,0 C 2,8 C 0,6 C 83 % 1000,2 hPa 0,0 l/m 0 min 0 min 77 W/m 0,0 km/h (0 Bft) 97,87 %
30.01.2021 14:46 3,0 C 2,8 C 0,6 C 82 % 1000,2 hPa 0,0 l/m 0 min 0 min 81 W/m 0,0 km/h (0 Bft) 97,87 %
30.01.2021 14:48 3,0 C 2,8 C 0,6 C 82 % 1000,1 hPa 0,0 l/m 0 min 0 min 87 W/m 0,0 km/h (0 Bft) 97,87 %
30.01.2021 14:50 3,0 C 2,8 C 0,6 C 82 % 1000,1 hPa 0,0 l/m 0 min 0 min 90 W/m 0,0 km/h (0 Bft) 97,83 %
30.01.2021 14:52 3,0 C 2,8 C 0,6 C 82 % 1000,1 hPa 0,0 l/m 0 min 0 min 91 W/m 0,0 km/h (0 Bft) 97,87 %
30.01.2021 14:54 3,0 C 2,8 C 0,6 C 82 % 1000,1 hPa 0,0 l/m 0 min 0 min 90 W/m 0,0 km/h (0 Bft) 95,74 %
30.01.2021 14:56 3,0 C 2,8 C 0,6 C 82 % 1000,1 hPa 0,0 l/m 0 min 0 min 88 W/m 0,0 km/h (0 Bft) 97,87 %
30.01.2021 14:58 3,0 C 2,8 C 0,6 C 82 % 1000,2 hPa 0,0 l/m 0 min 0 min 86 W/m 0,0 km/h (0 Bft) 95,74 %
30.01.2021 15:00 3,0 C 2,8 C 0,6 C 82 % 1000,2 hPa 0,0 l/m 0 min 0 min 86 W/m 0,0 km/h (0 Bft) 97,87 %
30.01.2021 15:02 3,0 C 2,8 C 0,6 C 83 % 1000,2 hPa 0,0 l/m 0 min 0 min 85 W/m 0,0 km/h (0 Bft) 97,83 %
30.01.2021 15:04 3,0 C 2,8 C 0,6 C 83 % 1000,2 hPa 0,0 l/m 0 min 0 min 84 W/m 0,0 km/h (0 Bft) 95,74 %
30.01.2021 15:06 3,0 C 2,8 C 0,6 C 83 % 1000,2 hPa 0,0 l/m 0 min 0 min 86 W/m 0,0 km/h (0 Bft) 97,87 %
30.01.2021 15:08 3,0 C 2,8 C 0,6 C 83 % 1000,2 hPa 0,0 l/m 0 min 0 min 89 W/m 0,0 km/h (0 Bft) 100,00 %
30.01.2021 15:10 3,0 C 2,8 C 0,6 C 83 % 1000,2 hPa 0,0 l/m 0 min 0 min 88 W/m 0,0 km/h (0 Bft) 100,00 %
30.01.2021 15:12 3,0 C 2,8 C 0,6 C 82 % 1000,3 hPa 0,0 l/m 0 min 0 min 85 W/m 0,0 km/h (0 Bft) 97,83 %
30.01.2021 15:14 3,0 C 2,8 C 0,6 C 83 % 1000,3 hPa 0,0 l/m 0 min 0 min 80 W/m 0,0 km/h (0 Bft) 95,74 %
30.01.2021 15:16 3,0 C 2,8 C 0,6 C 82 % 1000,3 hPa 0,0 l/m 0 min 0 min 74 W/m 0,0 km/h (0 Bft) 97,87 %
30.01.2021 15:18 3,0 C 2,8 C 0,6 C 82 % 1000,3 hPa 0,0 l/m 0 min 0 min 69 W/m 0,0 km/h (0 Bft) 97,87 %
30.01.2021 15:20 3,0 C 2,8 C 0,6 C 82 % 1000,4 hPa 0,0 l/m 0 min 0 min 63 W/m 0,0 km/h (0 Bft) 97,87 %
30.01.2021 15:22 3,0 C 2,8 C 0,6 C 82 % 1000,4 hPa 0,0 l/m 0 min 0 min 58 W/m 0,0 km/h (0 Bft) 95,74 %
30.01.2021 15:24 3,0 C 2,8 C 0,6 C 82 % 1000,4 hPa 0,0 l/m 0 min 0 min 52 W/m 0,0 km/h (0 Bft) 97,62 %
30.01.2021 15:26 3,0 C 2,8 C 0,6 C 82 % 1000,4 hPa 0,0 l/m 0 min 0 min 46 W/m 0,0 km/h (0 Bft) 97,87 %
30.01.2021 15:28 3,0 C 2,8 C 0,6 C 83 % 1000,3 hPa 0,0 l/m 0 min 0 min 43 W/m 0,0 km/h (0 Bft) 94,83 %
30.01.2021 15:30 3,1 C 2,8 C 0,6 C 83 % 1000,4 hPa 0,0 l/m 0 min 0 min 41 W/m 0,0 km/h (0 Bft) 97,22 %
30.01.2021 15:32 3,1 C 2,8 C 0,6 C 83 % 1000,3 hPa 0,0 l/m 0 min 0 min 39 W/m 0,0 km/h (0 Bft) 97,83 %
30.01.2021 15:34 3,0 C 2,8 C 0,6 C 82 % 1000,3 hPa 0,0 l/m 0 min 0 min 39 W/m 0,0 km/h (0 Bft) 96,61 %
30.01.2021 15:36 3,1 C 2,8 C 0,6 C 82 % 1000,3 hPa 0,0 l/m 0 min 0 min 40 W/m 0,0 km/h (0 Bft) 97,87 %
30.01.2021 15:38 3,0 C 2,8 C 0,6 C 82 % 1000,3 hPa 0,0 l/m 0 min 0 min 40 W/m 0,0 km/h (0 Bft) 97,87 %
30.01.2021 15:40 3,0 C 2,8 C 0,6 C 82 % 1000,3 hPa 0,0 l/m 0 min 0 min 38 W/m 0,0 km/h (0 Bft) 97,14 %
30.01.2021 15:42 3,0 C 2,8 C 0,0 C 82 % 1000,3 hPa 0,0 l/m 0 min 0 min 36 W/m 0,0 km/h (0 Bft) 98,28 %
30.01.2021 15:44 3,0 C 2,8 C 0,6 C 82 % 1000,4 hPa 0,0 l/m 0 min 0 min 35 W/m 0,0 km/h (0 Bft) 97,14 %
30.01.2021 15:46 3,0 C 2,8 C 0,0 C 82 % 1000,3 hPa 0,0 l/m 0 min 0 min 35 W/m 0,0 km/h (0 Bft) 98,31 %
30.01.2021 15:48 3,0 C 2,8 C 0,0 C 82 % 1000,3 hPa 0,0 l/m 0 min 0 min 33 W/m 0,0 km/h (0 Bft) 94,29 %
30.01.2021 15:50 3,0 C 2,8 C 0,0 C 81 % 1000,3 hPa 0,0 l/m 0 min 0 min 31 W/m 6,4 km/h (2 Bft) 96,61 %
30.01.2021 15:52 3,0 C 2,8 C 0,0 C 81 % 1000,3 hPa 0,0 l/m 0 min 0 min 30 W/m 0,0 km/h (0 Bft) 97,14 %
30.01.2021 15:54 2,9 C 2,8 C 0,0 C 81 % 1000,3 hPa 0,0 l/m 0 min 0 min 29 W/m 0,0 km/h (0 Bft) 98,28 %
30.01.2021 15:56 2,9 C 2,8 C 0,0 C 81 % 1000,2 hPa 0,0 l/m 0 min 0 min 29 W/m 0,0 km/h (0 Bft) 97,14 %
30.01.2021 15:58 2,9 C 2,8 C 0,0 C 81 % 1000,2 hPa 0,0 l/m 0 min 0 min 30 W/m 0,0 km/h (0 Bft) 97,87 %
30.01.2021 16:00 2,9 C 2,8 C 0,0 C 81 % 1000,1 hPa 0,0 l/m 0 min 0 min 31 W/m 3,2 km/h (1 Bft) 97,87 %
30.01.2021 16:02 2,9 C 2,8 C 0,0 C 81 % 1000,1 hPa 0,0 l/m 0 min 0 min 32 W/m 0,0 km/h (0 Bft) 96,30 %
30.01.2021 16:04 2,9 C 2,8 C 0,0 C 81 % 1000,1 hPa 0,0 l/m 0 min 0 min 33 W/m 0,0 km/h (0 Bft) 100,00 %
30.01.2021 16:06 2,9 C 2,8 C 0,0 C 80 % 1000,1 hPa 0,0 l/m 0 min 0 min 33 W/m 3,2 km/h (1 Bft) 97,87 %
30.01.2021 16:08 2,9 C 2,8 C 0,0 C 80 % 1000,1 hPa 0,0 l/m 0 min 0 min 33 W/m 3,2 km/h (1 Bft) 97,87 %
30.01.2021 16:10 2,9 C 2,8 C 0,0 C 80 % 1000,2 hPa 0,0 l/m 0 min 0 min 32 W/m 0,0 km/h (0 Bft) 97,87 %
30.01.2021 16:12 2,9 C 2,8 C 0,0 C 80 % 1000,1 hPa 0,0 l/m 0 min 0 min 30 W/m 0,0 km/h (0 Bft) 100,00 %
30.01.2021 16:14 2,9 C 2,8 C 0,0 C 81 % 1000,1 hPa 0,0 l/m 0 min 0 min 29 W/m 0,0 km/h (0 Bft) 97,87 %
30.01.2021 16:16 2,9 C 2,8 C 0,0 C 81 % 1000,2 hPa 0,0 l/m 0 min 0 min 28 W/m 3,2 km/h (1 Bft) 100,00 %
30.01.2021 16:18 2,9 C 2,8 C 0,0 C 81 % 1000,1 hPa 0,0 l/m 0 min 0 min 28 W/m 0,0 km/h (0 Bft) 100,00 %
30.01.2021 16:20 2,9 C 2,8 C 0,0 C 81 % 1000,2 hPa 0,0 l/m 0 min 0 min 28 W/m 3,2 km/h (1 Bft) 100,00 %
30.01.2021 16:22 2,9 C 2,8 C 0,0 C 81 % 1000,1 hPa 0,0 l/m 0 min 0 min 27 W/m 0,0 km/h (0 Bft) 100,00 %
30.01.2021 16:24 2,9 C 2,8 C 0,0 C 81 % 1000,1 hPa 0,0 l/m 0 min 0 min 26 W/m 0,0 km/h (0 Bft) 100,00 %
30.01.2021 16:26 2,9 C 2,2 C 0,0 C 81 % 1000,2 hPa 0,0 l/m 0 min 0 min 25 W/m 0,0 km/h (0 Bft) 100,00 %
30.01.2021 16:28 2,9 C 2,2 C 0,0 C 81 % 1000,1 hPa 0,0 l/m 0 min 0 min 23 W/m 0,0 km/h (0 Bft) 97,87 %
30.01.2021 16:30 2,9 C 2,2 C 0,0 C 80 % 1000,2 hPa 0,0 l/m 0 min 0 min 22 W/m 0,0 km/h (0 Bft) 80,43 %
30.01.2021 16:32 2,9 C 2,2 C 0,0 C 80 % 1000,2 hPa 0,0 l/m 0 min 0 min 19 W/m 0,0 km/h (0 Bft) 93,62 %
30.01.2021 16:34 2,9 C 2,2 C 0,0 C 80 % 1000,2 hPa 0,0 l/m 0 min 0 min 18 W/m 0,0 km/h (0 Bft) 93,62 %
30.01.2021 16:36 2,9 C 2,2 C 0,0 C 80 % 1000,2 hPa 0,0 l/m 0 min 0 min 17 W/m 0,0 km/h (0 Bft) 97,87 %
30.01.2021 16:38 2,9 C 2,2 C -0,5 C 80 % 1000,2 hPa 0,0 l/m 0 min 0 min 15 W/m 0,0 km/h (0 Bft) 100,00 %
30.01.2021 16:40 2,8 C 2,2 C -0,5 C 80 % 1000,2 hPa 0,0 l/m 0 min 0 min 14 W/m 0,0 km/h (0 Bft) 100,00 %
30.01.2021 16:42 2,8 C 2,2 C -0,5 C 80 % 1000,3 hPa 0,0 l/m 0 min 0 min 13 W/m 0,0 km/h (0 Bft) 100,00 %
30.01.2021 16:44 2,8 C 2,2 C -0,5 C 81 % 1000,3 hPa 0,0 l/m 0 min 0 min 12 W/m 0,0 km/h (0 Bft) 97,87 %
30.01.2021 16:46 2,8 C 2,2 C -0,5 C 81 % 1000,3 hPa 0,0 l/m 0 min 0 min 12 W/m 0,0 km/h (0 Bft) 97,87 %
30.01.2021 16:48 2,8 C 2,2 C -0,5 C 81 % 1000,3 hPa 0,0 l/m 0 min 0 min 11 W/m 0,0 km/h (0 Bft) 100,00 %
30.01.2021 16:50 2,8 C 2,2 C -0,5 C 81 % 1000,3 hPa 0,0 l/m 0 min 0 min 11 W/m 0,0 km/h (0 Bft) 100,00 %
30.01.2021 16:52 2,8 C 2,2 C -0,5 C 81 % 1000,3 hPa 0,0 l/m 0 min 0 min 11 W/m 3,2 km/h (1 Bft) 100,00 %
30.01.2021 16:54 2,8 C 2,2 C -0,5 C 81 % 1000,3 hPa 0,0 l/m 0 min 0 min 11 W/m 3,2 km/h (1 Bft) 100,00 %
30.01.2021 16:56 2,8 C 2,2 C -0,5 C 81 % 1000,3 hPa 0,0 l/m 0 min 0 min 10 W/m 0,0 km/h (0 Bft) 100,00 %
30.01.2021 16:58 2,7 C 2,2 C -0,5 C 81 % 1000,3 hPa 0,0 l/m 0 min 0 min 9 W/m 0,0 km/h (0 Bft) 97,87 %
30.01.2021 17:00 2,7 C 2,2 C -0,5 C 81 % 1000,2 hPa 0,0 l/m 0 min 0 min 9 W/m 0,0 km/h (0 Bft) 93,62 %
30.01.2021 17:02 2,7 C 2,2 C -0,5 C 81 % 1000,2 hPa 0,0 l/m 0 min 0 min 8 W/m 0,0 km/h (0 Bft) 98,00 %
30.01.2021 17:04 2,7 C 2,2 C -0,5 C 81 % 1000,2 hPa 0,0 l/m 0 min 0 min 7 W/m 0,0 km/h (0 Bft) 93,48 %
30.01.2021 17:06 2,7 C 2,2 C -0,5 C 81 % 1000,2 hPa 0,0 l/m 0 min 0 min 7 W/m 0,0 km/h (0 Bft) 91,49 %
30.01.2021 17:08 2,7 C 2,2 C -0,5 C 82 % 1000,3 hPa 0,0 l/m 0 min 0 min 5 W/m 0,0 km/h (0 Bft) 93,62 %
30.01.2021 17:10 2,7 C 2,2 C -0,5 C 82 % 1000,3 hPa 0,0 l/m 0 min 0 min 5 W/m 0,0 km/h (0 Bft) 53,49 %
30.01.2021 17:12 2,7 C 2,2 C -0,5 C 82 % 1000,4 hPa 0,0 l/m 0 min 0 min 3 W/m 0,0 km/h (0 Bft) 93,62 %
30.01.2021 17:14 2,7 C 2,2 C -0,5 C 83 % 1000,4 hPa 0,0 l/m 0 min 0 min 0 W/m 0,0 km/h (0 Bft) 91,49 %
30.01.2021 17:16 2,7 C 2,2 C -0,5 C 83 % 1000,4 hPa 0,0 l/m 0 min 0 min 0 W/m 0,0 km/h (0 Bft) 95,65 %
30.01.2021 17:18 2,7 C 2,2 C -0,5 C 83 % 1000,4 hPa 0,0 l/m 0 min 0 min 0 W/m 0,0 km/h (0 Bft) 95,74 %
30.01.2021 17:20 2,6 C 2,2 C -0,5 C 83 % 1000,4 hPa 0,0 l/m 0 min 0 min 0 W/m 0,0 km/h (0 Bft) 93,62 %
30.01.2021 17:22 2,6 C 2,2 C -0,5 C 83 % 1000,5 hPa 0,0 l/m 0 min 0 min 0 W/m 0,0 km/h (0 Bft) 95,74 %
30.01.2021 17:24 2,6 C 1,7 C -0,5 C 83 % 1000,5 hPa 0,0 l/m 0 min 0 min 0 W/m 0,0 km/h (0 Bft) 95,74 %
30.01.2021 17:26 2,6 C 1,7 C -0,5 C 84 % 1000,5 hPa 0,0 l/m 0 min 0 min 0 W/m 0,0 km/h (0 Bft) 93,62 %
30.01.2021 17:28 2,6 C 1,7 C -0,5 C 84 % 1000,5 hPa 0,0 l/m 0 min 0 min 0 W/m 0,0 km/h (0 Bft) 95,35 %
30.01.2021 17:30 2,5 C 1,7 C -0,5 C 84 % 1000,6 hPa 0,0 l/m 0 min 0 min 0 W/m 0,0 km/h (0 Bft) 97,87 %
30.01.2021 17:32 2,5 C 1,7 C -0,5 C 84 % 1000,7 hPa 0,0 l/m 0 min 0 min 0 W/m 0,0 km/h (0 Bft) 95,74 %
30.01.2021 17:34 2,5 C 1,7 C -0,5 C 84 % 1000,7 hPa 0,0 l/m 0 min 0 min 0 W/m 0,0 km/h (0 Bft) 93,62 %
30.01.2021 17:36 2,5 C 1,7 C -0,5 C 84 % 1000,7 hPa 0,0 l/m 0 min 0 min 0 W/m 0,0 km/h (0 Bft) 95,74 %
30.01.2021 17:38 2,5 C 1,7 C -0,5 C 84 % 1000,7 hPa 0,0 l/m 0 min 0 min 0 W/m 0,0 km/h (0 Bft) 95,74 %
30.01.2021 17:40 2,5 C 1,7 C -0,5 C 84 % 1000,7 hPa 0,0 l/m 0 min 0 min 0 W/m 0,0 km/h (0 Bft) 95,65 %
30.01.2021 17:42 2,5 C 1,7 C -0,5 C 84 % 1000,7 hPa 0,0 l/m 0 min 0 min 0 W/m 0,0 km/h (0 Bft) 93,62 %
30.01.2021 17:44 2,5 C 1,7 C -0,5 C 84 % 1000,7 hPa 0,0 l/m 0 min 0 min 0 W/m 0,0 km/h (0 Bft) 95,74 %
30.01.2021 17:46 2,4 C 1,7 C -0,5 C 84 % 1000,6 hPa 0,0 l/m 0 min 0 min 0 W/m 0,0 km/h (0 Bft) 95,74 %
30.01.2021 17:48 2,4 C 1,7 C -0,5 C 84 % 1000,7 hPa 0,0 l/m 0 min 0 min 0 W/m 0,0 km/h (0 Bft) 95,74 %
30.01.2021 17:50 2,4 C 1,7 C -0,5 C 84 % 1000,8 hPa 0,0 l/m 0 min 0 min 0 W/m 0,0 km/h (0 Bft) 91,49 %
30.01.2021 17:52 2,4 C 1,7 C -0,5 C 84 % 1000,9 hPa 0,0 l/m 0 min 0 min 0 W/m 0,0 km/h (0 Bft) 95,65 %
30.01.2021 17:54 2,4 C 1,7 C -0,5 C 84 % 1000,8 hPa 0,0 l/m 0 min 0 min 0 W/m 0,0 km/h (0 Bft) 95,74 %
30.01.2021 17:56 2,4 C 1,7 C -0,5 C 84 % 1000,9 hPa 0,0 l/m 0 min 0 min 0 W/m 0,0 km/h (0 Bft) 97,87 %
30.01.2021 17:58 2,3 C 1,7 C -0,5 C 84 % 1000,9 hPa 0,0 l/m 0 min 0 min 0 W/m 0,0 km/h (0 Bft) 95,74 %
30.01.2021 18:00 2,3 C 1,7 C -0,5 C 84 % 1000,9 hPa 0,0 l/m 0 min 0 min 0 W/m 0,0 km/h (0 Bft) 95,74 %
30.01.2021 18:02 2,3 C 1,7 C -0,5 C 84 % 1000,9 hPa 0,0 l/m 0 min 0 min 0 W/m 0,0 km/h (0 Bft) 95,74 %
30.01.2021 18:04 2,3 C 1,7 C -1,1 C 84 % 1000,8 hPa 0,0 l/m 0 min 0 min 0 W/m 0,0 km/h (0 Bft) 60,87 %
30.01.2021 18:08 2,3 C 1,7 C -1,1 C 84 % 1000,9 hPa 0,0 l/m 0 min 0 min 0 W/m 0,0 km/h (0 Bft) 92,55 %
30.01.2021 18:10 2,3 C 1,7 C -1,1 C 84 % 1000,9 hPa 0,0 l/m 0 min 0 min 0 W/m 0,0 km/h (0 Bft) 95,74 %
30.01.2021 18:12 2,2 C 1,7 C -1,1 C 84 % 1000,9 hPa 0,0 l/m 0 min 0 min 0 W/m 0,0 km/h (0 Bft) 95,74 %
30.01.2021 18:14 2,2 C 1,7 C -1,1 C 84 % 1001,0 hPa 0,0 l/m 0 min 0 min 0 W/m 0,0 km/h (0 Bft) 95,74 %
30.01.2021 18:16 2,2 C 1,7 C -1,1 C 84 % 1001,0 hPa 0,0 l/m 0 min 0 min 0 W/m 0,0 km/h (0 Bft) 95,65 %
30.01.2021 18:18 2,2 C 1,7 C -1,1 C 84 % 1001,1 hPa 0,0 l/m 0 min 0 min 0 W/m 0,0 km/h (0 Bft) 95,74 %
30.01.2021 18:20 2,1 C 1,7 C -1,1 C 84 % 1001,1 hPa 0,0 l/m 0 min 0 min 0 W/m 0,0 km/h (0 Bft) 95,74 %
30.01.2021 18:22 2,1 C 1,7 C -1,1 C 84 % 1001,1 hPa 0,0 l/m 0 min 0 min 0 W/m 0,0 km/h (0 Bft) 95,74 %
30.01.2021 18:24 2,1 C 1,7 C -1,1 C 84 % 1001,2 hPa 0,0 l/m 0 min 0 min 0 W/m 0,0 km/h (0 Bft) 97,87 %
30.01.2021 18:26 2,1 C 1,7 C -1,1 C 84 % 1001,2 hPa 0,0 l/m 0 min 0 min 0 W/m 3,2 km/h (1 Bft) 97,87 %
30.01.2021 18:28 2,1 C 1,7 C -1,1 C 84 % 1001,3 hPa 0,0 l/m 0 min 0 min 0 W/m 3,2 km/h (1 Bft) 95,65 %
30.01.2021 18:30 2,1 C 1,7 C -1,1 C 84 % 1001,3 hPa 0,0 l/m 0 min 0 min 0 W/m 3,2 km/h (1 Bft) 95,12 %
30.01.2021 18:32 2,1 C 1,7 C -1,1 C 84 % 1001,3 hPa 0,0 l/m 0 min 0 min 0 W/m 3,2 km/h (1 Bft) 97,87 %
30.01.2021 18:34 2,1 C 1,7 C -1,1 C 84 % 1001,3 hPa 0,0 l/m 0 min 0 min 0 W/m 0,0 km/h (0 Bft) 97,83 %
30.01.2021 18:36 2,0 C 1,7 C -1,1 C 84 % 1001,4 hPa 0,0 l/m 0 min 0 min 0 W/m 0,0 km/h (0 Bft) 97,87 %
30.01.2021 18:38 2,0 C 1,7 C -1,1 C 84 % 1001,4 hPa 0,0 l/m 0 min 0 min 0 W/m 0,0 km/h (0 Bft) 96,30 %
30.01.2021 18:40 2,0 C 1,7 C -1,1 C 84 % 1001,4 hPa 0,0 l/m 0 min 0 min 0 W/m 0,0 km/h (0 Bft) 97,83 %
30.01.2021 18:42 2,0 C 1,7 C -1,1 C 84 % 1001,4 hPa 0,0 l/m 0 min 0 min 0 W/m 0,0 km/h (0 Bft) 97,87 %
30.01.2021 18:44 2,0 C 1,7 C -1,1 C 84 % 1001,4 hPa 0,0 l/m 0 min 0 min 0 W/m 0,0 km/h (0 Bft) 95,74 %
30.01.2021 18:46 2,0 C 1,7 C -1,1 C 84 % 1001,5 hPa 0,0 l/m 0 min 0 min 0 W/m 0,0 km/h (0 Bft) 100,00 %
30.01.2021 18:48 2,0 C 1,7 C -1,1 C 84 % 1001,5 hPa 0,0 l/m 0 min 0 min 0 W/m 0,0 km/h (0 Bft) 97,87 %
30.01.2021 18:50 2,0 C 1,1 C -1,1 C 84 % 1001,5 hPa 0,0 l/m 0 min 0 min 0 W/m 0,0 km/h (0 Bft) 100,00 %
30.01.2021 18:52 2,0 C 1,1 C -1,1 C 84 % 1001,6 hPa 0,0 l/m 0 min 0 min 0 W/m 0,0 km/h (0 Bft) 100,00 %
30.01.2021 18:54 2,0 C 1,1 C -1,1 C 84 % 1001,6 hPa 0,0 l/m 0 min 0 min 0 W/m 3,2 km/h (1 Bft) 100,00 %
30.01.2021 18:56 2,0 C 1,1 C -1,1 C 84 % 1001,6 hPa 0,0 l/m 0 min 0 min 0 W/m 0,0 km/h (0 Bft) 100,00 %
30.01.2021 18:58 2,0 C 1,1 C -1,1 C 84 % 1001,6 hPa 0,0 l/m 0 min 0 min 0 W/m 3,2 km/h (1 Bft) 97,87 %
30.01.2021 19:00 1,9 C 1,1 C -1,1 C 84 % 1001,5 hPa 0,0 l/m 0 min 0 min 0 W/m 0,0 km/h (0 Bft) 97,87 %
30.01.2021 19:02 1,9 C 1,1 C -1,1 C 84 % 1001,5 hPa 0,0 l/m 0 min 0 min 0 W/m 0,0 km/h (0 Bft) 100,00 %
30.01.2021 19:04 1,9 C 1,1 C -1,1 C 84 % 1001,5 hPa 0,0 l/m 0 min 0 min 0 W/m 0,0 km/h (0 Bft) 100,00 %
30.01.2021 19:06 1,9 C 1,1 C -1,1 C 84 % 1001,6 hPa 0,0 l/m 0 min 0 min 0 W/m 0,0 km/h (0 Bft) 100,00 %
30.01.2021 19:08 1,9 C 1,1 C -1,1 C 84 % 1001,6 hPa 0,0 l/m 0 min 0 min 0 W/m 0,0 km/h (0 Bft) 100,00 %
30.01.2021 19:10 1,9 C 1,1 C -1,1 C 84 % 1001,7 hPa 0,0 l/m 0 min 0 min 0 W/m 0,0 km/h (0 Bft) 97,87 %
30.01.2021 19:12 1,9 C 1,1 C -1,1 C 84 % 1001,7 hPa 0,0 l/m 0 min 0 min 0 W/m 0,0 km/h (0 Bft) 100,00 %
30.01.2021 19:14 1,9 C 1,1 C -1,1 C 84 % 1001,7 hPa 0,0 l/m 0 min 0 min 0 W/m 0,0 km/h (0 Bft) 97,14 %
30.01.2021 19:16 1,9 C 1,1 C -1,1 C 85 % 1001,7 hPa 0,0 l/m 0 min 0 min 0 W/m 0,0 km/h (0 Bft) 98,36 %
30.01.2021 19:18 1,8 C 1,1 C -1,1 C 85 % 1001,7 hPa 0,0 l/m 0 min 0 min 0 W/m 3,2 km/h (1 Bft) 100,00 %
30.01.2021 19:20 1,8 C 1,1 C -1,1 C 85 % 1001,8 hPa 0,0 l/m 0 min 0 min 0 W/m 3,2 km/h (1 Bft) 100,00 %
30.01.2021 19:22 1,8 C 1,1 C -1,1 C 85 % 1001,7 hPa 0,0 l/m 0 min 0 min 0 W/m 0,0 km/h (0 Bft) 97,87 %
30.01.2021 19:24 1,8 C 1,1 C -1,1 C 85 % 1001,8 hPa 0,0 l/m 0 min 0 min 0 W/m 0,0 km/h (0 Bft) 100,00 %
30.01.2021 19:26 1,8 C 1,1 C -1,1 C 85 % 1001,8 hPa 0,0 l/m 0 min 0 min 0 W/m 0,0 km/h (0 Bft) 97,83 %
30.01.2021 19:28 1,8 C 1,1 C -1,6 C 85 % 1001,8 hPa 0,0 l/m 0 min 0 min 0 W/m 0,0 km/h (0 Bft) 100,00 %
30.01.2021 19:30 1,8 C 1,1 C -1,6 C 85 % 1001,8 hPa 0,0 l/m 0 min 0 min 0 W/m 3,2 km/h (1 Bft) 100,00 %
30.01.2021 19:32 1,7 C 1,1 C -1,6 C 85 % 1001,7 hPa 0,0 l/m 0 min 0 min 0 W/m 0,0 km/h (0 Bft) 97,78 %
30.01.2021 19:34 1,7 C 1,1 C -1,6 C 85 % 1001,7 hPa 0,0 l/m 0 min 0 min 0 W/m 0,0 km/h (0 Bft) 100,00 %
30.01.2021 19:36 1,7 C 1,1 C -1,6 C 85 % 1001,8 hPa 0,0 l/m 0 min 0 min 0 W/m 0,0 km/h (0 Bft) 100,00 %
30.01.2021 19:38 1,7 C 1,1 C -1,6 C 85 % 1001,9 hPa 0,0 l/m 0 min 0 min 0 W/m 0,0 km/h (0 Bft) 100,00 %
30.01.2021 19:40 1,7 C 1,1 C -1,6 C 85 % 1001,9 hPa 0,0 l/m 0 min 0 min 0 W/m 0,0 km/h (0 Bft) 97,87 %
30.01.2021 19:42 1,6 C 1,1 C -1,6 C 85 % 1001,8 hPa 0,0 l/m 0 min 0 min 0 W/m 0,0 km/h (0 Bft) 100,00 %
30.01.2021 19:44 1,6 C 1,1 C -1,6 C 86 % 1001,9 hPa 0,0 l/m 0 min 0 min 0 W/m 0,0 km/h (0 Bft) 97,87 %
30.01.2021 19:46 1,6 C 1,1 C -1,6 C 86 % 1001,9 hPa 0,0 l/m 0 min 0 min 0 W/m 0,0 km/h (0 Bft) 100,00 %
30.01.2021 19:48 1,6 C 1,1 C -1,6 C 86 % 1002,0 hPa 0,0 l/m 0 min 0 min 0 W/m 0,0 km/h (0 Bft) 97,87 %
30.01.2021 19:50 1,6 C 1,1 C -1,6 C 86 % 1002,0 hPa 0,0 l/m 0 min 0 min 0 W/m 0,0 km/h (0 Bft) 100,00 %
30.01.2021 19:52 1,6 C 1,1 C -1,6 C 86 % 1001,9 hPa 0,0 l/m 0 min 0 min 0 W/m 0,0 km/h (0 Bft) 100,00 %
30.01.2021 19:54 1,6 C 1,1 C -1,6 C 86 % 1001,9 hPa 0,0 l/m 0 min 0 min 0 W/m 0,0 km/h (0 Bft) 100,00 %
30.01.2021 19:56 1,6 C 1,1 C -1,6 C 86 % 1001,9 hPa 0,0 l/m 0 min 0 min 0 W/m 0,0 km/h (0 Bft) 100,00 %
30.01.2021 19:58 1,5 C 1,1 C -1,6 C 86 % 1001,8 hPa 0,0 l/m 0 min 0 min 0 W/m 0,0 km/h (0 Bft) 97,87 %
30.01.2021 20:00 1,5 C 1,1 C -1,6 C 86 % 1001,9 hPa 0,0 l/m 0 min 0 min 0 W/m 0,0 km/h (0 Bft) 97,87 %
30.01.2021 20:02 1,5 C 1,1 C -1,6 C 86 % 1002,0 hPa 0,0 l/m 0 min 0 min 0 W/m 0,0 km/h (0 Bft) 97,83 %
30.01.2021 20:04 1,5 C 0,6 C -1,6 C 86 % 1002,1 hPa 0,0 l/m 0 min 0 min 0 W/m 0,0 km/h (0 Bft) 97,87 %
30.01.2021 20:06 1,5 C 0,6 C -1,6 C 86 % 1002,1 hPa 0,0 l/m 0 min 0 min 0 W/m 0,0 km/h (0 Bft) 97,87 %
30.01.2021 20:08 1,5 C 1,1 C -1,6 C 86 % 1002,2 hPa 0,0 l/m 0 min 0 min 0 W/m 0,0 km/h (0 Bft) 97,87 %
30.01.2021 20:10 1,5 C 0,6 C -1,6 C 86 % 1002,2 hPa 0,0 l/m 0 min 0 min 0 W/m 0,0 km/h (0 Bft) 93,62 %
30.01.2021 20:12 1,5 C 0,6 C -1,6 C 86 % 1002,2 hPa 0,0 l/m 0 min 0 min 0 W/m 0,0 km/h (0 Bft) 97,87 %
30.01.2021 20:14 1,5 C 0,6 C -1,6 C 86 % 1002,2 hPa 0,0 l/m 0 min 0 min 0 W/m 0,0 km/h (0 Bft) 97,83 %
30.01.2021 20:16 1,4 C 0,6 C -1,6 C 86 % 1002,2 hPa 0,0 l/m 0 min 0 min 0 W/m 0,0 km/h (0 Bft) 97,87 %
30.01.2021 20:18 1,4 C 0,6 C -1,6 C 86 % 1002,2 hPa 0,0 l/m 0 min 0 min 0 W/m 0,0 km/h (0 Bft) 97,87 %
30.01.2021 20:20 1,4 C 0,6 C -1,6 C 86 % 1002,2 hPa 0,0 l/m 0 min 0 min 0 W/m 0,0 km/h (0 Bft) 97,87 %
30.01.2021 20:22 1,4 C 0,6 C -1,6 C 87 % 1002,2 hPa 0,0 l/m 0 min 0 min 0 W/m 0,0 km/h (0 Bft) 97,87 %
30.01.2021 20:24 1,4 C 0,6 C -1,6 C 87 % 1002,2 hPa 0,0 l/m 0 min 0 min 0 W/m 3,2 km/h (1 Bft) 93,62 %
30.01.2021 20:26 1,4 C 0,6 C -1,6 C 87 % 1002,2 hPa 0,0 l/m 0 min 0 min 0 W/m 0,0 km/h (0 Bft) 93,48 %
30.01.2021 20:27 1,4 C 0,6 C -1,6 C 87 % 1002,1 hPa 0,0 l/m 0 min 0 min 0 W/m 0,0 km/h (0 Bft) 97,87 %
30.01.2021 20:30 1,3 C 0,6 C -1,6 C 87 % 1002,1 hPa 0,0 l/m 0 min 0 min 0 W/m 0,0 km/h (0 Bft) 97,87 %
30.01.2021 20:32 1,3 C 0,6 C -1,6 C 87 % 1002,2 hPa 0,0 l/m 0 min 0 min 0 W/m 0,0 km/h (0 Bft) 97,87 %
30.01.2021 20:34 1,3 C 0,6 C -1,6 C 87 % 1002,2 hPa 0,0 l/m 0 min 0 min 0 W/m 0,0 km/h (0 Bft) 97,44 %
30.01.2021 20:36 1,3 C 0,6 C -1,6 C 87 % 1002,3 hPa 0,0 l/m 0 min 0 min 0 W/m 0,0 km/h (0 Bft) 91,49 %
30.01.2021 20:38 1,3 C 0,6 C -1,6 C 87 % 1002,3 hPa 0,0 l/m 0 min 0 min 0 W/m 0,0 km/h (0 Bft) 54,35 %
30.01.2021 20:40 1,3 C 0,6 C -1,6 C 87 % 1002,3 hPa 0,0 l/m 0 min 0 min 0 W/m 0,0 km/h (0 Bft) 93,62 %
30.01.2021 20:42 1,3 C 0,6 C -1,6 C 87 % 1002,3 hPa 0,0 l/m 0 min 0 min 0 W/m 3,2 km/h (1 Bft) 93,62 %
30.01.2021 20:44 1,2 C 0,6 C -1,6 C 87 % 1002,3 hPa 0,0 l/m 0 min 0 min 0 W/m 0,0 km/h (0 Bft) 93,48 %
30.01.2021 20:46 1,2 C 0,6 C -1,6 C 87 % 1002,4 hPa 0,0 l/m 0 min 0 min 0 W/m 0,0 km/h (0 Bft) 93,62 %
30.01.2021 20:48 1,2 C 0,6 C -1,6 C 87 % 1002,4 hPa 0,0 l/m 0 min 0 min 0 W/m 0,0 km/h (0 Bft) 93,62 %
30.01.2021 20:50 1,2 C 0,6 C -1,6 C 87 % 1002,4 hPa 0,0 l/m 0 min 0 min 0 W/m 0,0 km/h (0 Bft) 95,74 %
30.01.2021 20:52 1,2 C 0,6 C -1,6 C 87 % 1002,3 hPa 0,0 l/m 0 min 0 min 0 W/m 0,0 km/h (0 Bft) 95,74 %
30.01.2021 20:54 1,1 C 0,6 C -1,6 C 87 % 1002,3 hPa 0,0 l/m 0 min 0 min 0 W/m 0,0 km/h (0 Bft) 97,87 %
30.01.2021 20:56 1,1 C 0,6 C -1,6 C 87 % 1002,3 hPa 0,0 l/m 0 min 0 min 0 W/m 0,0 km/h (0 Bft) 97,83 %
30.01.2021 20:58 1,1 C 0,6 C -1,6 C 87 % 1002,3 hPa 0,0 l/m 0 min 0 min 0 W/m 0,0 km/h (0 Bft) 97,87 %
30.01.2021 21:00 1,1 C 0,6 C -1,6 C 87 % 1002,2 hPa 0,0 l/m 0 min 0 min 0 W/m 0,0 km/h (0 Bft) 95,74 %
30.01.2021 21:02 1,1 C 0,6 C -1,6 C 87 % 1002,3 hPa 0,0 l/m 0 min 0 min 0 W/m 0,0 km/h (0 Bft) 97,87 %
30.01.2021 21:04 1,1 C 0,6 C -1,6 C 87 % 1002,3 hPa 0,0 l/m 0 min 0 min 0 W/m 0,0 km/h (0 Bft) 95,74 %
30.01.2021 21:06 1,1 C 0,6 C -1,6 C 87 % 1002,4 hPa 0,0 l/m 0 min 0 min 0 W/m 3,2 km/h (1 Bft) 100,00 %
30.01.2021 21:08 1,1 C 0,6 C -1,6 C 87 % 1002,4 hPa 0,0 l/m 0 min 0 min 0 W/m 0,0 km/h (0 Bft) 97,83 %
30.01.2021 21:10 1,1 C 0,6 C -1,6 C 87 % 1002,4 hPa 0,0 l/m 0 min 0 min 0 W/m 0,0 km/h (0 Bft) 97,87 %
30.01.2021 21:12 1,0 C 0,6 C -1,6 C 87 % 1002,4 hPa 0,0 l/m 0 min 0 min 0 W/m 3,2 km/h (1 Bft) 95,74 %
30.01.2021 21:14 1,0 C 0,6 C -1,6 C 87 % 1002,4 hPa 0,0 l/m 0 min 0 min 0 W/m 0,0 km/h (0 Bft) 97,87 %
30.01.2021 21:16 1,0 C 0,6 C -1,6 C 87 % 1002,5 hPa 0,0 l/m 0 min 0 min 0 W/m 0,0 km/h (0 Bft) 97,87 %
30.01.2021 21:18 1,0 C 0,6 C -1,6 C 87 % 1002,5 hPa 0,0 l/m 0 min 0 min 0 W/m 0,0 km/h (0 Bft) 100,00 %
30.01.2021 21:20 1,0 C 0,6 C -1,6 C 87 % 1002,5 hPa 0,0 l/m 0 min 0 min 0 W/m 0,0 km/h (0 Bft) 100,00 %
30.01.2021 21:22 1,0 C 0,6 C -1,6 C 87 % 1002,5 hPa 0,0 l/m 0 min 0 min 0 W/m 0,0 km/h (0 Bft) 97,87 %
30.01.2021 21:24 1,0 C 0,6 C -1,6 C 87 % 1002,5 hPa 0,0 l/m 0 min 0 min 0 W/m 0,0 km/h (0 Bft) 97,87 %
30.01.2021 21:26 1,0 C 0,6 C -1,6 C 87 % 1002,6 hPa 0,0 l/m 0 min 0 min 0 W/m 0,0 km/h (0 Bft) 100,00 %
30.01.2021 21:28 1,0 C 0,6 C -1,6 C 88 % 1002,6 hPa 0,0 l/m 0 min 0 min 0 W/m 0,0 km/h (0 Bft) 100,00 %
30.01.2021 21:30 1,0 C 0,6 C -1,6 C 88 % 1002,5 hPa 0,0 l/m 0 min 0 min 0 W/m 0,0 km/h (0 Bft) 100,00 %
30.01.2021 21:32 1,0 C 0,6 C -1,6 C 88 % 1002,5 hPa 0,0 l/m 0 min 0 min 0 W/m 0,0 km/h (0 Bft) 100,00 %
30.01.2021 21:34 1,0 C 0,6 C -1,6 C 88 % 1002,5 hPa 0,0 l/m 0 min 0 min 0 W/m 0,0 km/h (0 Bft) 100,00 %
30.01.2021 21:36 1,0 C 0,6 C -1,6 C 88 % 1002,5 hPa 0,0 l/m 0 min 0 min 0 W/m 0,0 km/h (0 Bft) 100,00 %
30.01.2021 21:38 1,0 C 0,6 C -1,6 C 88 % 1002,5 hPa 0,0 l/m 0 min 0 min 0 W/m 0,0 km/h (0 Bft) 100,00 %
30.01.2021 21:40 1,0 C 0,6 C -1,6 C 88 % 1002,4 hPa 0,0 l/m 0 min 0 min 0 W/m 0,0 km/h (0 Bft) 100,00 %
30.01.2021 21:42 1,0 C 0,6 C -1,6 C 88 % 1002,4 hPa 0,0 l/m 0 min 0 min 0 W/m 0,0 km/h (0 Bft) 100,00 %
30.01.2021 21:44 1,0 C 0,6 C -1,6 C 88 % 1002,5 hPa 0,0 l/m 0 min 0 min 0 W/m 0,0 km/h (0 Bft) 100,00 %
30.01.2021 21:46 1,0 C 0,6 C -1,6 C 88 % 1002,5 hPa 0,0 l/m 0 min 0 min 0 W/m 0,0 km/h (0 Bft) 100,00 %
30.01.2021 21:48 1,0 C 0,6 C -1,6 C 88 % 1002,5 hPa 0,0 l/m 0 min 0 min 0 W/m 0,0 km/h (0 Bft) 97,87 %
30.01.2021 21:50 1,0 C 0,6 C -2,2 C 88 % 1002,5 hPa 0,0 l/m 0 min 0 min 0 W/m 0,0 km/h (0 Bft) 100,00 %
30.01.2021 21:52 1,0 C 0,6 C -1,6 C 88 % 1002,6 hPa 0,0 l/m 0 min 0 min 0 W/m 0,0 km/h (0 Bft) 100,00 %
30.01.2021 21:54 1,0 C 0,6 C -1,6 C 88 % 1002,6 hPa 0,0 l/m 0 min 0 min 0 W/m 0,0 km/h (0 Bft) 100,00 %
30.01.2021 21:56 0,9 C 0,6 C -1,6 C 88 % 1002,6 hPa 0,0 l/m 0 min 0 min 0 W/m 0,0 km/h (0 Bft) 100,00 %
30.01.2021 21:58 1,0 C 0,6 C -1,6 C 88 % 1002,6 hPa 0,0 l/m 0 min 0 min 0 W/m 0,0 km/h (0 Bft) 100,00 %
30.01.2021 22:00 0,9 C 0,6 C -1,6 C 88 % 1002,6 hPa 0,0 l/m 0 min 0 min 0 W/m 0,0 km/h (0 Bft) 97,87 %
30.01.2021 22:02 0,9 C 0,6 C -1,6 C 88 % 1002,6 hPa 0,0 l/m 0 min 0 min 0 W/m 3,2 km/h (1 Bft) 97,83 %
30.01.2021 22:04 0,9 C 0,6 C -1,6 C 88 % 1002,6 hPa 0,0 l/m 0 min 0 min 0 W/m 0,0 km/h (0 Bft) 100,00 %
30.01.2021 22:06 0,9 C 0,6 C -1,6 C 88 % 1002,6 hPa 0,0 l/m 0 min 0 min 0 W/m 3,2 km/h (1 Bft) 100,00 %
30.01.2021 22:08 0,9 C 0,6 C -1,6 C 88 % 1002,6 hPa 0,0 l/m 0 min 0 min 0 W/m 0,0 km/h (0 Bft) 100,00 %
30.01.2021 22:10 0,9 C 0,6 C -1,6 C 88 % 1002,6 hPa 0,0 l/m 0 min 0 min 0 W/m 0,0 km/h (0 Bft) 100,00 %
30.01.2021 22:12 0,9 C 0,6 C -1,6 C 88 % 1002,6 hPa 0,0 l/m 0 min 0 min 0 W/m 3,2 km/h (1 Bft) 93,62 %
30.01.2021 22:14 0,9 C 0,6 C -1,6 C 88 % 1002,6 hPa 0,0 l/m 0 min 0 min 0 W/m 0,0 km/h (0 Bft) 53,66 %
30.01.2021 22:16 0,9 C 0,6 C -1,6 C 88 % 1002,6 hPa 0,0 l/m 0 min 0 min 0 W/m 0,0 km/h (0 Bft) 97,87 %
30.01.2021 22:18 0,9 C 0,6 C -1,6 C 88 % 1002,7 hPa 0,0 l/m 0 min 0 min 0 W/m 0,0 km/h (0 Bft) 97,14 %
30.01.2021 22:20 0,9 C 0,6 C -1,6 C 88 % 1002,7 hPa 0,0 l/m 0 min 0 min 0 W/m 0,0 km/h (0 Bft) 97,87 %
30.01.2021 22:22 0,9 C 0,6 C -1,6 C 88 % 1002,7 hPa 0,0 l/m 0 min 0 min 0 W/m 0,0 km/h (0 Bft) 97,87 %
30.01.2021 22:24 0,9 C 0,6 C -2,2 C 88 % 1002,7 hPa 0,0 l/m 0 min 0 min 0 W/m 0,0 km/h (0 Bft) 97,87 %
30.01.2021 22:26 0,9 C 0,6 C -2,2 C 88 % 1002,7 hPa 0,0 l/m 0 min 0 min 0 W/m 3,2 km/h (1 Bft) 97,87 %
30.01.2021 22:28 0,9 C 0,6 C -2,2 C 88 % 1002,6 hPa 0,0 l/m 0 min 0 min 0 W/m 0,0 km/h (0 Bft) 97,87 %
30.01.2021 22:30 0,9 C 0,6 C -2,2 C 88 % 1002,6 hPa 0,0 l/m 0 min 0 min 0 W/m 0,0 km/h (0 Bft) 97,83 %
30.01.2021 22:32 0,9 C 0,6 C -2,2 C 88 % 1002,6 hPa 0,0 l/m 0 min 0 min 0 W/m 0,0 km/h (0 Bft) 95,74 %
30.01.2021 22:34 0,9 C 0,0 C -2,2 C 88 % 1002,6 hPa 0,0 l/m 0 min 0 min 0 W/m 0,0 km/h (0 Bft) 97,87 %
30.01.2021 22:36 0,9 C 0,6 C -2,2 C 88 % 1002,7 hPa 0,0 l/m 0 min 0 min 0 W/m 0,0 km/h (0 Bft) 98,11 %
30.01.2021 22:38 0,9 C 0,0 C -2,2 C 88 % 1002,7 hPa 0,0 l/m 0 min 0 min 0 W/m 0,0 km/h (0 Bft) 97,87 %
30.01.2021 22:40 0,9 C 0,0 C -2,2 C 88 % 1002,7 hPa 0,0 l/m 0 min 0 min 0 W/m 0,0 km/h (0 Bft) 92,68 %
30.01.2021 22:42 0,8 C 0,0 C -2,2 C 88 % 1002,7 hPa 0,0 l/m 0 min 0 min 0 W/m 0,0 km/h (0 Bft) 97,83 %
30.01.2021 22:44 0,8 C 0,0 C -2,2 C 88 % 1002,7 hPa 0,0 l/m 0 min 0 min 0 W/m 0,0 km/h (0 Bft) 97,87 %
30.01.2021 22:46 0,8 C 0,0 C -2,2 C 88 % 1002,7 hPa 0,0 l/m 0 min 0 min 0 W/m 0,0 km/h (0 Bft) 97,87 %
30.01.2021 22:48 0,8 C 0,0 C -2,2 C 89 % 1002,7 hPa 0,0 l/m 0 min 0 min 0 W/m 0,0 km/h (0 Bft) 97,87 %
30.01.2021 22:50 0,8 C 0,0 C -2,2 C 89 % 1002,8 hPa 0,0 l/m 0 min 0 min 0 W/m 0,0 km/h (0 Bft) 97,87 %
30.01.2021 22:52 0,8 C 0,0 C -2,2 C 89 % 1002,8 hPa 0,0 l/m 0 min 0 min 0 W/m 0,0 km/h (0 Bft) 97,87 %
30.01.2021 22:54 0,8 C 0,0 C -2,2 C 89 % 1002,8 hPa 0,0 l/m 0 min 0 min 0 W/m 0,0 km/h (0 Bft) 95,65 %
30.01.2021 22:56 0,8 C 0,0 C -2,2 C 89 % 1002,8 hPa 0,0 l/m 0 min 0 min 0 W/m 0,0 km/h (0 Bft) 95,74 %
30.01.2021 22:58 0,7 C 0,0 C -2,2 C 89 % 1002,8 hPa 0,0 l/m 0 min 0 min 0 W/m 0,0 km/h (0 Bft) 97,87 %
30.01.2021 23:00 0,8 C 0,0 C -2,2 C 89 % 1002,7 hPa 0,0 l/m 0 min 0 min 0 W/m 0,0 km/h (0 Bft) 76,60 %
30.01.2021 23:02 0,7 C 0,0 C -2,2 C 88 % 1002,8 hPa 0,0 l/m 0 min 0 min 0 W/m 0,0 km/h (0 Bft) 70,27 %
30.01.2021 23:04 0,7 C 0,0 C -2,2 C 88 % 1002,7 hPa 0,0 l/m 0 min 0 min 0 W/m 0,0 km/h (0 Bft) 93,62 %
30.01.2021 23:06 0,7 C 0,0 C -2,2 C 88 % 1002,8 hPa 0,0 l/m 0 min 0 min 0 W/m 0,0 km/h (0 Bft) 91,30 %
30.01.2021 23:08 0,6 C 0,0 C -2,2 C 89 % 1002,8 hPa 0,0 l/m 0 min 0 min 0 W/m 0,0 km/h (0 Bft) 93,62 %
30.01.2021 23:10 0,6 C 0,0 C -2,2 C 88 % 1002,8 hPa 0,0 l/m 0 min 0 min 0 W/m 3,2 km/h (1 Bft) 93,62 %
30.01.2021 23:12 0,6 C 0,0 C -2,2 C 89 % 1002,9 hPa 0,0 l/m 0 min 0 min 0 W/m 0,0 km/h (0 Bft) 93,62 %
30.01.2021 23:14 0,6 C 0,0 C -2,2 C 89 % 1002,9 hPa 0,0 l/m 0 min 0 min 0 W/m 0,0 km/h (0 Bft) 93,62 %
30.01.2021 23:16 0,6 C 0,0 C -2,2 C 89 % 1003,0 hPa 0,0 l/m 0 min 0 min 0 W/m 0,0 km/h (0 Bft) 93,62 %
30.01.2021 23:18 0,5 C 0,0 C -2,2 C 89 % 1003,0 hPa 0,0 l/m 0 min 0 min 0 W/m 0,0 km/h (0 Bft) 95,65 %
30.01.2021 23:20 0,5 C 0,0 C -2,2 C 89 % 1003,0 hPa 0,0 l/m 0 min 0 min 0 W/m 0,0 km/h (0 Bft) 93,62 %
30.01.2021 23:22 0,5 C 0,0 C -2,2 C 89 % 1003,0 hPa 0,0 l/m 0 min 0 min 0 W/m 0,0 km/h (0 Bft) 93,62 %
30.01.2021 23:24 0,5 C 0,0 C -2,2 C 89 % 1002,9 hPa 0,0 l/m 0 min 0 min 0 W/m 0,0 km/h (0 Bft) 91,49 %
30.01.2021 23:26 0,5 C 0,0 C -2,2 C 89 % 1003,0 hPa 0,0 l/m 0 min 0 min 0 W/m 0,0 km/h (0 Bft) 93,62 %
30.01.2021 23:28 0,5 C 0,0 C -2,2 C 89 % 1003,0 hPa 0,0 l/m 0 min 0 min 0 W/m 0,0 km/h (0 Bft) 89,13 %
30.01.2021 23:30 0,5 C -0,6 C -2,7 C 89 % 1003,0 hPa 0,0 l/m 0 min 0 min 0 W/m 0,0 km/h (0 Bft) 93,62 %
30.01.2021 23:32 0,5 C -0,6 C -2,7 C 89 % 1003,0 hPa 0,0 l/m 0 min 0 min 0 W/m 0,0 km/h (0 Bft) 89,36 %
30.01.2021 23:34 0,5 C -0,6 C -2,7 C 89 % 1003,1 hPa 0,0 l/m 0 min 0 min 0 W/m 0,0 km/h (0 Bft) 93,62 %
30.01.2021 23:36 0,4 C -0,6 C -2,7 C 89 % 1003,0 hPa 0,0 l/m 0 min 0 min 0 W/m 0,0 km/h (0 Bft) 93,62 %
30.01.2021 23:38 0,4 C -0,6 C -2,7 C 89 % 1003,1 hPa 0,0 l/m 0 min 0 min 0 W/m 0,0 km/h (0 Bft) 93,62 %
30.01.2021 23:40 0,4 C -0,6 C -2,7 C 89 % 1003,0 hPa 0,0 l/m 0 min 0 min 0 W/m 0,0 km/h (0 Bft) 91,30 %
30.01.2021 23:42 0,4 C -0,6 C -2,7 C 89 % 1003,1 hPa 0,0 l/m 0 min 0 min 0 W/m 0,0 km/h (0 Bft) 93,22 %
30.01.2021 23:44 0,4 C -0,6 C -2,7 C 89 % 1003,2 hPa 0,0 l/m 0 min 0 min 0 W/m 0,0 km/h (0 Bft) 95,65 %
30.01.2021 23:46 0,3 C -0,6 C -2,7 C 89 % 1003,1 hPa 0,0 l/m 0 min 0 min 0 W/m 0,0 km/h (0 Bft) 95,74 %
30.01.2021 23:48 0,3 C -0,6 C -2,7 C 89 % 1003,2 hPa 0,0 l/m 0 min 0 min 0 W/m 0,0 km/h (0 Bft) 91,49 %
30.01.2021 23:50 0,3 C -0,6 C -2,7 C 89 % 1003,2 hPa 0,0 l/m 0 min 0 min 0 W/m 0,0 km/h (0 Bft) 95,74 %
30.01.2021 23:52 0,2 C -0,6 C -2,7 C 89 % 1003,3 hPa 0,0 l/m 0 min 0 min 0 W/m 0,0 km/h (0 Bft) 97,87 %
30.01.2021 23:54 0,2 C -0,6 C -2,7 C 89 % 1003,3 hPa 0,0 l/m 0 min 0 min 0 W/m 0,0 km/h (0 Bft) 97,87 %
30.01.2021 23:56 0,1 C -0,6 C -2,7 C 89 % 1003,3 hPa 0,0 l/m 0 min 0 min 0 W/m 0,0 km/h (0 Bft) 100,00 %
30.01.2021 23:58 0,1 C -0,6 C -2,7 C 89 % 1003,3 hPa 0,0 l/m 0 min 0 min 0 W/m 3,2 km/h (1 Bft) 97,87 %
_ Min-Zeit 23:56 23:30 23:30 16:06 00:02 - - - - 00:14 17:10
Minimum _ 0,1 C -0,6 C -2,7 C 80 % 1000,0 hPa - - - - 0,0 km/h (0 Bft) 53,49 %
_ Max-Zeit 00:00 00:00 00:00 04:36 23:52 00:00 00:00 00:00 13:58 01:50 00:00
Maximum _ 7,3 C 6,7 C 4,5 C 94 % 1003,3 hPa 0,0 l/m 0 min 0 min 141 W/m 35,4 km/h
N (5 Bft)
100,00 %
Durchschnitt _ 2,2 C 1,8 C -0,1 C 88 % 1001,7 hPa #0,0 l/m #0 min. #0 min. 59 W/m 1,1 km/h (1 Bft) 96,88 %
© 2021 W. Hausmann